Time,TemperatureF,DewpointF,PressureIn,WindDirection,WindDirectionDegrees,WindSpeedMPH,WindSpeedGustMPH,Humidity,HourlyPrecipIn,Conditions,Clouds,dailyrainin,SoftwareType,DateUTC
2013-01-13 00:00:00,24.4,22.2,29.96,NNW,334,3.0,3.0,91,0.00,,,0.00,Wunderground v.1.15,2013-01-13 06:00:00,
2013-01-13 00:02:00,24.4,22.2,29.96,NW,305,3.0,4.0,91,0.00,,,0.00,Wunderground v.1.15,2013-01-13 06:02:00,
2013-01-13 00:04:00,24.3,22.1,29.96,NW,312,4.0,7.0,91,0.00,,,0.00,Wunderground v.1.15,2013-01-13 06:04:00,
2013-01-13 00:07:00,24.2,22.0,29.97,NNW,339,4.0,7.0,91,0.00,,,0.00,Wunderground v.1.15,2013-01-13 06:07:00,
2013-01-13 00:08:00,24.2,22.0,29.97,NNW,338,4.0,7.0,91,0.00,,,0.00,Wunderground v.1.15,2013-01-13 06:08:00,
2013-01-13 00:10:00,24.1,21.9,29.97,NNW,334,4.0,4.0,91,0.00,,,0.00,Wunderground v.1.15,2013-01-13 06:10:00,
2013-01-13 00:11:00,24.1,21.9,29.97,North,4,4.0,4.0,91,0.00,,,0.00,Wunderground v.1.15,2013-01-13 06:11:00,
2013-01-13 00:12:00,24.0,21.8,29.98,NNW,339,4.0,4.0,91,0.00,,,0.00,Wunderground v.1.15,2013-01-13 06:12:00,
2013-01-13 00:15:00,23.9,21.7,29.98,NW,319,3.0,4.0,91,0.00,,,0.00,Wunderground v.1.15,2013-01-13 06:15:00,
2013-01-13 00:16:00,23.9,21.7,29.97,NNW,338,3.0,4.0,91,0.00,,,0.00,Wunderground v.1.15,2013-01-13 06:16:00,
2013-01-13 00:17:00,23.9,21.7,29.97,NNW,334,3.0,4.0,91,0.00,,,0.00,Wunderground v.1.15,2013-01-13 06:17:00,
2013-01-13 00:20:00,23.9,21.7,29.97,North,349,3.0,4.0,91,0.00,,,0.00,Wunderground v.1.15,2013-01-13 06:20:00,
2013-01-13 00:21:00,23.8,21.6,29.97,NNW,342,3.0,5.0,91,0.00,,,0.00,Wunderground v.1.15,2013-01-13 06:21:00,
2013-01-13 00:22:00,23.8,21.6,29.97,NNE,21,3.0,5.0,91,0.00,,,0.00,Wunderground v.1.15,2013-01-13 06:22:00,
2013-01-13 00:25:00,23.8,21.6,29.97,NNW,347,3.0,5.0,91,0.00,,,0.00,Wunderground v.1.15,2013-01-13 06:25:00,
2013-01-13 00:27:00,23.7,21.5,29.96,NNW,338,3.0,5.0,91,0.00,,,0.00,Wunderground v.1.15,2013-01-13 06:27:00,
2013-01-13 00:29:00,23.7,21.5,29.96,NNW,347,3.0,3.0,91,0.00,,,0.00,Wunderground v.1.15,2013-01-13 06:29:00,
2013-01-13 00:31:00,23.7,21.5,29.96,NNW,343,3.0,4.0,91,0.00,,,0.00,Wunderground v.1.15,2013-01-13 06:31:00,
2013-01-13 00:34:00,23.5,21.3,29.95,NNW,342,3.0,6.0,91,0.00,,,0.00,Wunderground v.1.15,2013-01-13 06:34:00,
2013-01-13 00:37:00,23.5,21.3,29.95,NNW,347,3.0,6.0,91,0.00,,,0.00,Wunderground v.1.15,2013-01-13 06:37:00,
2013-01-13 00:38:00,23.5,21.3,29.95,North,351,3.0,6.0,91,0.00,,,0.00,Wunderground v.1.15,2013-01-13 06:38:00,
2013-01-13 00:39:00,23.5,21.3,29.95,NNW,338,4.0,5.0,91,0.00,,,0.00,Wunderground v.1.15,2013-01-13 06:39:00,
2013-01-13 00:43:00,23.4,21.2,29.95,NNW,338,4.0,5.0,91,0.00,,,0.00,Wunderground v.1.15,2013-01-13 06:43:00,
2013-01-13 00:44:00,23.4,21.2,29.95,North,355,4.0,5.0,91,0.00,,,0.00,Wunderground v.1.15,2013-01-13 06:44:00,
2013-01-13 00:45:00,23.4,21.2,29.96,NNW,347,4.0,5.0,91,0.00,,,0.00,Wunderground v.1.15,2013-01-13 06:45:00,
2013-01-13 00:48:00,23.4,21.2,29.95,NNW,345,4.0,5.0,91,0.00,,,0.00,Wunderground v.1.15,2013-01-13 06:48:00,
2013-01-13 00:49:00,23.4,21.2,29.95,North,349,4.0,4.0,91,0.00,,,0.00,Wunderground v.1.15,2013-01-13 06:49:00,
2013-01-13 00:53:00,23.3,21.1,29.95,NNE,17,4.0,4.0,91,0.00,,,0.00,Wunderground v.1.15,2013-01-13 06:53:00,
2013-01-13 00:54:00,23.3,21.1,29.94,NNW,334,3.0,4.0,91,0.00,,,0.00,Wunderground v.1.15,2013-01-13 06:54:00,
2013-01-13 00:56:00,23.3,21.1,29.94,NNE,23,3.0,4.0,91,0.00,,,0.00,Wunderground v.1.15,2013-01-13 06:56:00,
2013-01-13 00:57:00,23.3,21.1,29.94,NNW,342,3.0,4.0,91,0.00,,,0.00,Wunderground v.1.15,2013-01-13 06:57:00,
2013-01-13 00:58:00,23.3,21.1,29.94,NNE,32,3.0,4.0,91,0.00,,,0.00,Wunderground v.1.15,2013-01-13 06:58:00,
2013-01-13 01:00:00,23.3,21.1,29.94,NNE,17,3.0,3.0,91,0.00,,,0.00,Wunderground v.1.15,2013-01-13 07:00:00,
2013-01-13 01:01:00,23.3,21.1,29.93,North,352,3.0,5.0,91,0.00,,,0.00,Wunderground v.1.15,2013-01-13 07:01:00,
2013-01-13 01:03:00,23.3,21.1,29.93,NNE,30,3.0,5.0,91,0.00,,,0.00,Wunderground v.1.15,2013-01-13 07:03:00,
2013-01-13 01:05:00,23.3,21.1,29.93,NNE,33,2.0,5.0,91,0.00,,,0.00,Wunderground v.1.15,2013-01-13 07:05:00,
2013-01-13 01:06:00,23.3,21.1,29.93,NE,39,2.0,5.0,91,0.00,,,0.00,Wunderground v.1.15,2013-01-13 07:06:00,
2013-01-13 01:09:00,23.3,21.1,29.94,NNW,347,2.0,5.0,91,0.00,,,0.00,Wunderground v.1.15,2013-01-13 07:09:00,
2013-01-13 01:10:00,23.4,21.2,29.94,NNW,345,2.0,4.0,91,0.00,,,0.00,Wunderground v.1.15,2013-01-13 07:10:00,
2013-01-13 01:13:00,23.4,21.2,29.94,NNW,338,2.0,4.0,91,0.00,,,0.00,Wunderground v.1.15,2013-01-13 07:13:00,
2013-01-13 01:17:00,23.4,21.2,29.94,NNW,328,3.0,4.0,91,0.00,,,0.00,Wunderground v.1.15,2013-01-13 07:17:00,
2013-01-13 01:18:00,23.4,21.2,29.94,NNW,347,3.0,4.0,91,0.00,,,0.00,Wunderground v.1.15,2013-01-13 07:18:00,
2013-01-13 01:20:00,23.4,21.2,29.94,NNW,345,3.0,3.0,91,0.00,,,0.00,Wunderground v.1.15,2013-01-13 07:20:00,
2013-01-13 01:21:00,23.4,21.2,29.94,NW,321,3.0,5.0,91,0.00,,,0.00,Wunderground v.1.15,2013-01-13 07:21:00,
2013-01-13 01:22:00,23.4,21.2,29.94,North,5,3.0,5.0,91,0.00,,,0.00,Wunderground v.1.15,2013-01-13 07:22:00,
2013-01-13 01:23:00,23.4,21.2,29.93,NNW,345,3.0,5.0,91,0.00,,,0.00,Wunderground v.1.15,2013-01-13 07:23:00,
2013-01-13 01:25:00,23.4,21.2,29.93,WNW,294,3.0,5.0,91,0.00,,,0.00,Wunderground v.1.15,2013-01-13 07:25:00,
2013-01-13 01:27:00,23.4,20.9,29.94,NW,322,3.0,5.0,90,0.00,,,0.00,Wunderground v.1.15,2013-01-13 07:27:00,
2013-01-13 01:31:00,23.4,21.2,29.95,NNW,337,3.0,5.0,91,0.00,,,0.00,Wunderground v.1.15,2013-01-13 07:31:00,
2013-01-13 01:32:00,23.4,21.2,29.94,NNW,338,3.0,5.0,91,0.00,,,0.00,Wunderground v.1.15,2013-01-13 07:32:00,
2013-01-13 01:34:00,23.4,21.2,29.95,NNW,342,3.0,5.0,91,0.00,,,0.00,Wunderground v.1.15,2013-01-13 07:34:00,
2013-01-13 01:35:00,23.4,21.2,29.95,NNW,344,3.0,5.0,91,0.00,,,0.00,Wunderground v.1.15,2013-01-13 07:35:00,
2013-01-13 01:38:00,23.4,20.9,29.96,WNW,291,3.0,5.0,90,0.00,,,0.00,Wunderground v.1.15,2013-01-13 07:38:00,
2013-01-13 01:40:00,23.4,21.2,29.96,NNW,347,3.0,6.0,91,0.00,,,0.00,Wunderground v.1.15,2013-01-13 07:40:00,
2013-01-13 01:42:00,23.4,21.2,29.96,NNW,339,4.0,6.0,91,0.00,,,0.00,Wunderground v.1.15,2013-01-13 07:42:00,
2013-01-13 01:44:00,23.4,20.9,29.96,WNW,298,4.0,6.0,90,0.00,,,0.00,Wunderground v.1.15,2013-01-13 07:44:00,
2013-01-13 01:45:00,23.4,20.9,29.96,WNW,290,4.0,6.0,90,0.00,,,0.00,Wunderground v.1.15,2013-01-13 07:45:00,
2013-01-13 01:46:00,23.4,20.9,29.96,NW,322,4.0,6.0,90,0.00,,,0.00,Wunderground v.1.15,2013-01-13 07:46:00,
2013-01-13 01:48:00,23.4,21.2,29.97,NW,326,3.0,6.0,91,0.00,,,0.00,Wunderground v.1.15,2013-01-13 07:48:00,
2013-01-13 01:50:00,23.4,21.2,29.96,WNW,302,3.0,3.0,91,0.00,,,0.00,Wunderground v.1.15,2013-01-13 07:50:00,
2013-01-13 01:51:00,23.4,21.2,29.97,WNW,299,3.0,3.0,91,0.00,,,0.00,Wunderground v.1.15,2013-01-13 07:51:00,
2013-01-13 01:53:00,23.5,21.3,29.97,NNW,348,3.0,4.0,91,0.00,,,0.00,Wunderground v.1.15,2013-01-13 07:53:00,
2013-01-13 01:58:00,23.5,21.3,29.98,NNW,338,2.0,4.0,91,0.00,,,0.00,Wunderground v.1.15,2013-01-13 07:58:00,
2013-01-13 01:59:00,23.5,21.3,29.98,West,274,2.0,4.0,91,0.00,,,0.00,Wunderground v.1.15,2013-01-13 07:59:00,
2013-01-13 02:01:00,23.6,21.4,29.98,WNW,302,2.0,3.0,91,0.00,,,0.00,Wunderground v.1.15,2013-01-13 08:01:00,
2013-01-13 02:03:00,23.5,21.3,29.98,NNW,342,2.0,3.0,91,0.00,,,0.00,Wunderground v.1.15,2013-01-13 08:03:00,
2013-01-13 02:06:00,23.5,21.3,29.99,NNW,328,2.0,3.0,91,0.00,,,0.00,Wunderground v.1.15,2013-01-13 08:06:00,
2013-01-13 02:08:00,23.4,20.9,29.99,North,11,3.0,4.0,90,0.00,,,0.00,Wunderground v.1.15,2013-01-13 08:08:00,
2013-01-13 02:11:00,23.4,20.9,29.99,NNW,338,3.0,4.0,90,0.00,,,0.00,Wunderground v.1.15,2013-01-13 08:11:00,
2013-01-13 02:12:00,23.3,20.8,29.99,NNW,340,3.0,4.0,90,0.00,,,0.00,Wunderground v.1.15,2013-01-13 08:12:00,
2013-01-13 02:13:00,23.4,20.9,29.99,NNW,345,3.0,4.0,90,0.00,,,0.00,Wunderground v.1.15,2013-01-13 08:13:00,
2013-01-13 02:16:00,23.3,20.8,29.99,NW,326,3.0,4.0,90,0.00,,,0.00,Wunderground v.1.15,2013-01-13 08:16:00,
2013-01-13 02:17:00,23.2,20.7,29.99,NNW,342,3.0,4.0,90,0.00,,,0.00,Wunderground v.1.15,2013-01-13 08:17:00,
2013-01-13 02:18:00,23.1,20.6,29.98,NW,322,3.0,4.0,90,0.00,,,0.00,Wunderground v.1.15,2013-01-13 08:18:00,
2013-01-13 02:22:00,23.1,20.3,29.99,NNW,340,4.0,4.0,89,0.00,,,0.00,Wunderground v.1.15,2013-01-13 08:22:00,
2013-01-13 02:24:00,23.0,20.2,29.99,North,354,4.0,4.0,89,0.00,,,0.00,Wunderground v.1.15,2013-01-13 08:24:00,
2013-01-13 02:25:00,23.0,20.2,29.99,NNW,332,4.0,4.0,89,0.00,,,0.00,Wunderground v.1.15,2013-01-13 08:25:00,
2013-01-13 02:29:00,22.9,20.1,29.97,NNW,342,3.0,4.0,89,0.00,,,0.00,Wunderground v.1.15,2013-01-13 08:29:00,
2013-01-13 02:30:00,22.9,20.1,29.96,NNW,342,3.0,4.0,89,0.00,,,0.00,Wunderground v.1.15,2013-01-13 08:30:00,
2013-01-13 02:31:00,22.8,19.8,29.95,NNW,329,3.0,4.0,88,0.00,,,0.00,Wunderground v.1.15,2013-01-13 08:31:00,
2013-01-13 02:32:00,22.8,19.8,29.94,NNW,345,2.0,4.0,88,0.00,,,0.00,Wunderground v.1.15,2013-01-13 08:32:00,
2013-01-13 02:34:00,22.7,19.7,29.94,NNW,340,2.0,5.0,88,0.00,,,0.00,Wunderground v.1.15,2013-01-13 08:34:00,
2013-01-13 02:37:00,22.8,20.0,29.95,NNW,342,2.0,5.0,89,0.00,,,0.00,Wunderground v.1.15,2013-01-13 08:37:00,
2013-01-13 02:38:00,22.7,19.9,29.95,NNW,332,2.0,5.0,89,0.00,,,0.00,Wunderground v.1.15,2013-01-13 08:38:00,
2013-01-13 02:39:00,22.7,19.9,29.96,North,355,3.0,5.0,89,0.00,,,0.00,Wunderground v.1.15,2013-01-13 08:39:00,
2013-01-13 02:41:00,22.7,19.9,29.96,North,349,3.0,4.0,89,0.00,,,0.00,Wunderground v.1.15,2013-01-13 08:41:00,
2013-01-13 02:44:00,22.7,19.9,29.97,NNW,342,3.0,4.0,89,0.00,,,0.00,Wunderground v.1.15,2013-01-13 08:44:00,
2013-01-13 02:45:00,22.7,19.9,29.97,NNW,338,3.0,4.0,89,0.00,,,0.00,Wunderground v.1.15,2013-01-13 08:45:00,
2013-01-13 02:47:00,22.7,19.9,29.97,NNW,336,3.0,4.0,89,0.00,,,0.00,Wunderground v.1.15,2013-01-13 08:47:00,
2013-01-13 02:49:00,22.7,19.9,29.96,North,6,3.0,4.0,89,0.00,,,0.00,Wunderground v.1.15,2013-01-13 08:49:00,
2013-01-13 02:50:00,22.7,19.9,29.96,NNW,345,3.0,4.0,89,0.00,,,0.00,Wunderground v.1.15,2013-01-13 08:50:00,
2013-01-13 02:52:00,22.7,19.9,29.96,NNW,331,3.0,4.0,89,0.00,,,0.00,Wunderground v.1.15,2013-01-13 08:52:00,
2013-01-13 02:54:00,22.7,19.9,29.96,WNW,285,3.0,6.0,89,0.00,,,0.00,Wunderground v.1.15,2013-01-13 08:54:00,
2013-01-13 02:58:00,22.7,19.9,29.98,NNW,333,3.0,6.0,89,0.00,,,0.00,Wunderground v.1.15,2013-01-13 08:58:00,
2013-01-13 03:01:00,22.7,19.9,29.98,NNW,342,3.0,3.0,89,0.00,,,0.00,Wunderground v.1.15,2013-01-13 09:01:00,
2013-01-13 03:03:00,22.8,20.3,29.98,NW,314,3.0,3.0,90,0.00,,,0.00,Wunderground v.1.15,2013-01-13 09:03:00,
2013-01-13 03:05:00,22.8,20.0,29.98,NNW,343,3.0,3.0,89,0.00,,,0.00,Wunderground v.1.15,2013-01-13 09:05:00,
2013-01-13 03:06:00,22.8,20.0,29.98,NW,305,3.0,3.0,89,0.00,,,0.00,Wunderground v.1.15,2013-01-13 09:06:00,
2013-01-13 03:07:00,22.8,20.0,29.98,NW,310,3.0,3.0,89,0.00,,,0.00,Wunderground v.1.15,2013-01-13 09:07:00,
2013-01-13 03:08:00,22.8,20.3,29.98,NNW,345,3.0,4.0,90,0.00,,,0.00,Wunderground v.1.15,2013-01-13 09:08:00,
2013-01-13 03:11:00,22.8,20.3,29.98,NW,326,3.0,3.0,90,0.00,,,0.00,Wunderground v.1.15,2013-01-13 09:11:00,
2013-01-13 03:13:00,22.8,20.0,29.98,NNW,329,3.0,4.0,89,0.00,,,0.00,Wunderground v.1.15,2013-01-13 09:13:00,
2013-01-13 03:16:00,22.8,20.0,29.98,NNW,330,3.0,4.0,89,0.00,,,0.00,Wunderground v.1.15,2013-01-13 09:16:00,
2013-01-13 03:17:00,22.8,20.3,29.98,NW,314,3.0,4.0,90,0.00,,,0.00,Wunderground v.1.15,2013-01-13 09:17:00,
2013-01-13 03:21:00,22.8,20.3,29.98,NNW,340,2.0,3.0,90,0.00,,,0.00,Wunderground v.1.15,2013-01-13 09:21:00,
2013-01-13 03:22:00,22.8,20.3,29.98,NNE,33,2.0,5.0,90,0.00,,,0.00,Wunderground v.1.15,2013-01-13 09:22:00,
2013-01-13 03:23:00,22.7,20.2,29.98,WNW,299,2.0,5.0,90,0.00,,,0.00,Wunderground v.1.15,2013-01-13 09:23:00,
2013-01-13 03:25:00,22.7,19.9,29.99,NNW,338,2.0,5.0,89,0.00,,,0.00,Wunderground v.1.15,2013-01-13 09:25:00,
2013-01-13 03:28:00,22.6,19.8,30.00,NNW,345,3.0,5.0,89,0.00,,,0.00,Wunderground v.1.15,2013-01-13 09:28:00,
2013-01-13 03:29:00,22.7,19.9,30.00,NNW,336,2.0,5.0,89,0.00,,,0.00,Wunderground v.1.15,2013-01-13 09:29:00,
2013-01-13 03:33:00,22.7,19.9,29.99,WNW,290,2.0,3.0,89,0.00,,,0.00,Wunderground v.1.15,2013-01-13 09:33:00,
2013-01-13 03:34:00,22.6,19.8,29.99,NW,311,2.0,3.0,89,0.00,,,0.00,Wunderground v.1.15,2013-01-13 09:34:00,
2013-01-13 03:36:00,22.5,19.7,29.99,WNW,298,2.0,4.0,89,0.00,,,0.00,Wunderground v.1.15,2013-01-13 09:36:00,
2013-01-13 03:37:00,22.5,19.7,29.99,NW,305,2.0,4.0,89,0.00,,,0.00,Wunderground v.1.15,2013-01-13 09:37:00,
2013-01-13 03:38:00,22.5,19.7,29.99,WNW,303,2.0,4.0,89,0.00,,,0.00,Wunderground v.1.15,2013-01-13 09:38:00,
2013-01-13 03:39:00,22.4,19.6,29.99,NW,309,2.0,4.0,89,0.00,,,0.00,Wunderground v.1.15,2013-01-13 09:39:00,
2013-01-13 03:41:00,22.4,19.6,29.99,WNW,301,2.0,3.0,89,0.00,,,0.00,Wunderground v.1.15,2013-01-13 09:41:00,
2013-01-13 03:42:00,22.3,19.6,29.99,NNW,342,2.0,3.0,89,0.00,,,0.00,Wunderground v.1.15,2013-01-13 09:42:00,
2013-01-13 03:45:00,22.3,19.6,29.99,WNW,291,2.0,3.0,89,0.00,,,0.00,Wunderground v.1.15,2013-01-13 09:45:00,
2013-01-13 03:46:00,22.3,19.6,29.99,WNW,297,2.0,3.0,89,0.00,,,0.00,Wunderground v.1.15,2013-01-13 09:46:00,
2013-01-13 03:47:00,22.3,19.6,30.00,NW,319,2.0,3.0,89,0.00,,,0.00,Wunderground v.1.15,2013-01-13 09:47:00,
2013-01-13 03:48:00,22.2,19.2,30.00,NW,319,1.0,3.0,88,0.00,,,0.00,Wunderground v.1.15,2013-01-13 09:48:00,
2013-01-13 03:50:00,22.2,19.2,30.00,WNW,292,2.0,2.0,88,0.00,,,0.00,Wunderground v.1.15,2013-01-13 09:50:00,
2013-01-13 03:51:00,22.2,19.2,30.00,SW,231,2.0,3.0,88,0.00,,,0.00,Wunderground v.1.15,2013-01-13 09:51:00,
2013-01-13 03:52:00,22.2,19.2,30.00,NW,308,2.0,3.0,88,0.00,,,0.00,Wunderground v.1.15,2013-01-13 09:52:00,
2013-01-13 03:54:00,22.1,19.1,30.00,NW,305,2.0,3.0,88,0.00,,,0.00,Wunderground v.1.15,2013-01-13 09:54:00,
2013-01-13 03:58:00,22.1,19.1,30.01,NNW,336,2.0,3.0,88,0.00,,,0.00,Wunderground v.1.15,2013-01-13 09:58:00,
2013-01-13 03:59:00,22.1,19.1,30.01,NW,311,2.0,3.0,88,0.00,,,0.00,Wunderground v.1.15,2013-01-13 09:59:00,
2013-01-13 04:02:00,22.1,19.1,30.01,NW,308,2.0,3.0,88,0.00,,,0.00,Wunderground v.1.15,2013-01-13 10:02:00,
2013-01-13 04:03:00,22.1,19.1,30.00,NW,307,2.0,3.0,88,0.00,,,0.00,Wunderground v.1.15,2013-01-13 10:03:00,
2013-01-13 04:04:00,22.1,19.1,30.01,NW,308,1.0,3.0,88,0.00,,,0.00,Wunderground v.1.15,2013-01-13 10:04:00,
2013-01-13 04:07:00,22.1,19.1,30.01,NNW,328,2.0,3.0,88,0.00,,,0.00,Wunderground v.1.15,2013-01-13 10:07:00,
2013-01-13 04:09:00,22.1,19.1,30.02,NNW,338,2.0,3.0,88,0.00,,,0.00,Wunderground v.1.15,2013-01-13 10:09:00,
2013-01-13 04:10:00,22.1,19.1,30.03,WNW,300,2.0,2.0,88,0.00,,,0.00,Wunderground v.1.15,2013-01-13 10:10:00,
2013-01-13 04:12:00,22.1,19.1,30.03,NW,314,2.0,3.0,88,0.00,,,0.00,Wunderground v.1.15,2013-01-13 10:12:00,
2013-01-13 04:14:00,22.0,19.0,30.04,West,281,2.0,3.0,88,0.00,,,0.00,Wunderground v.1.15,2013-01-13 10:14:00,
2013-01-13 04:18:00,22.0,18.7,30.04,NW,324,2.0,5.0,87,0.00,,,0.00,Wunderground v.1.15,2013-01-13 10:18:00,
2013-01-13 04:21:00,21.9,18.6,30.04,NNW,333,2.0,4.0,87,0.00,,,0.00,Wunderground v.1.15,2013-01-13 10:21:00,
2013-01-13 04:23:00,21.8,18.3,30.04,NNW,338,2.0,4.0,86,0.00,,,0.00,Wunderground v.1.15,2013-01-13 10:23:00,
2013-01-13 04:26:00,21.8,18.5,30.03,NE,39,2.0,4.0,87,0.00,,,0.00,Wunderground v.1.15,2013-01-13 10:26:00,
2013-01-13 04:29:00,21.8,18.5,30.03,NNW,338,2.0,4.0,87,0.00,,,0.00,Wunderground v.1.15,2013-01-13 10:29:00,
2013-01-13 04:30:00,21.8,18.5,30.03,NW,325,2.0,2.0,87,0.00,,,0.00,Wunderground v.1.15,2013-01-13 10:30:00,
2013-01-13 04:31:00,21.8,18.5,30.03,NNE,16,2.0,2.0,87,0.00,,,0.00,Wunderground v.1.15,2013-01-13 10:31:00,
2013-01-13 04:33:00,21.8,18.3,30.02,NNW,342,2.0,2.0,86,0.00,,,0.00,Wunderground v.1.15,2013-01-13 10:33:00,
2013-01-13 04:34:00,21.8,18.5,30.03,NW,322,1.0,2.0,87,0.00,,,0.00,Wunderground v.1.15,2013-01-13 10:34:00,
2013-01-13 04:36:00,21.9,18.6,30.02,NNW,338,1.0,2.0,87,0.00,,,0.00,Wunderground v.1.15,2013-01-13 10:36:00,
2013-01-13 04:39:00,21.8,18.3,30.02,NW,322,1.0,3.0,86,0.00,,,0.00,Wunderground v.1.15,2013-01-13 10:39:00,
2013-01-13 04:42:00,21.8,18.5,30.03,WNW,298,1.0,2.0,87,0.00,,,0.00,Wunderground v.1.15,2013-01-13 10:42:00,
2013-01-13 04:44:00,21.8,18.5,30.03,NW,312,1.0,2.0,87,0.00,,,0.00,Wunderground v.1.15,2013-01-13 10:44:00,
2013-01-13 04:47:00,21.8,18.5,30.04,WNW,293,2.0,2.0,87,0.00,,,0.00,Wunderground v.1.15,2013-01-13 10:47:00,
2013-01-13 04:49:00,21.7,18.2,30.04,NW,305,1.0,1.0,86,0.00,,,0.00,Wunderground v.1.15,2013-01-13 10:49:00,
2013-01-13 04:52:00,21.7,18.2,30.03,WNW,298,2.0,2.0,86,0.00,,,0.00,Wunderground v.1.15,2013-01-13 10:52:00,
2013-01-13 04:53:00,21.7,18.4,30.03,WNW,301,2.0,2.0,87,0.00,,,0.00,Wunderground v.1.15,2013-01-13 10:53:00,
2013-01-13 04:54:00,21.8,18.5,30.02,NW,311,2.0,2.0,87,0.00,,,0.00,Wunderground v.1.15,2013-01-13 10:54:00,
2013-01-13 04:57:00,21.8,18.5,30.02,NW,319,2.0,2.0,87,0.00,,,0.00,Wunderground v.1.15,2013-01-13 10:57:00,
2013-01-13 04:58:00,21.8,18.5,30.02,WNW,303,2.0,2.0,87,0.00,,,0.00,Wunderground v.1.15,2013-01-13 10:58:00,
2013-01-13 05:00:00,21.8,18.5,30.02,NW,318,1.0,1.0,87,0.00,,,0.00,Wunderground v.1.15,2013-01-13 11:00:00,
2013-01-13 05:02:00,21.7,18.4,30.02,WNW,295,1.0,1.0,87,0.00,,,0.00,Wunderground v.1.15,2013-01-13 11:02:00,
2013-01-13 05:05:00,21.7,18.2,30.01,NNW,345,1.0,1.0,86,0.00,,,0.00,Wunderground v.1.15,2013-01-13 11:05:00,
2013-01-13 05:06:00,21.6,18.1,30.01,NNW,327,1.0,1.0,86,0.00,,,0.00,Wunderground v.1.15,2013-01-13 11:06:00,
2013-01-13 05:07:00,21.6,18.1,30.02,NNW,348,1.0,1.0,86,0.00,,,0.00,Wunderground v.1.15,2013-01-13 11:07:00,
2013-01-13 05:10:00,21.6,18.1,30.02,NW,311,1.0,2.0,86,0.00,,,0.00,Wunderground v.1.15,2013-01-13 11:10:00,
2013-01-13 05:11:00,21.6,18.1,30.02,NNW,332,1.0,2.0,86,0.00,,,0.00,Wunderground v.1.15,2013-01-13 11:11:00,
2013-01-13 05:12:00,21.6,18.1,30.02,NW,325,1.0,2.0,86,0.00,,,0.00,Wunderground v.1.15,2013-01-13 11:12:00,
2013-01-13 05:14:00,21.6,18.3,30.02,WNW,296,1.0,2.0,87,0.00,,,0.00,Wunderground v.1.15,2013-01-13 11:14:00,
2013-01-13 05:15:00,21.5,18.0,30.03,WNW,288,1.0,3.0,86,0.00,,,0.00,Wunderground v.1.15,2013-01-13 11:15:00,
2013-01-13 05:17:00,21.5,18.0,30.03,WNW,295,2.0,3.0,86,0.00,,,0.00,Wunderground v.1.15,2013-01-13 11:17:00,
2013-01-13 05:19:00,21.4,17.6,30.03,WNW,297,2.0,2.0,85,0.00,,,0.00,Wunderground v.1.15,2013-01-13 11:19:00,
2013-01-13 05:20:00,21.3,17.5,30.03,WNW,295,2.0,2.0,85,0.00,,,0.00,Wunderground v.1.15,2013-01-13 11:20:00,
2013-01-13 05:23:00,21.3,17.5,30.03,NW,315,2.0,3.0,85,0.00,,,0.00,Wunderground v.1.15,2013-01-13 11:23:00,
2013-01-13 05:24:00,21.3,17.5,30.02,NNW,342,2.0,3.0,85,0.00,,,0.00,Wunderground v.1.15,2013-01-13 11:24:00,
2013-01-13 05:25:00,21.3,17.5,30.02,NW,314,2.0,3.0,85,0.00,,,0.00,Wunderground v.1.15,2013-01-13 11:25:00,
2013-01-13 05:28:00,21.3,17.5,30.01,NNW,339,2.0,4.0,85,0.00,,,0.00,Wunderground v.1.15,2013-01-13 11:28:00,
2013-01-13 05:29:00,21.3,17.8,30.00,NW,319,2.0,3.0,86,0.00,,,0.00,Wunderground v.1.15,2013-01-13 11:29:00,
2013-01-13 05:30:00,21.3,17.8,30.00,NW,325,2.0,3.0,86,0.00,,,0.00,Wunderground v.1.15,2013-01-13 11:30:00,
2013-01-13 05:31:00,21.3,17.8,30.01,NW,321,2.0,3.0,86,0.00,,,0.00,Wunderground v.1.15,2013-01-13 11:31:00,
2013-01-13 05:35:00,21.2,17.7,30.01,NNW,342,2.0,3.0,86,0.00,,,0.00,Wunderground v.1.15,2013-01-13 11:35:00,
2013-01-13 05:36:00,21.2,17.7,30.01,NW,312,2.0,3.0,86,0.00,,,0.00,Wunderground v.1.15,2013-01-13 11:36:00,
2013-01-13 05:37:00,21.2,17.7,30.00,West,281,2.0,3.0,86,0.00,,,0.00,Wunderground v.1.15,2013-01-13 11:37:00,
2013-01-13 05:39:00,21.2,17.7,30.00,WNW,300,2.0,2.0,86,0.00,,,0.00,Wunderground v.1.15,2013-01-13 11:39:00,
2013-01-13 05:41:00,21.1,17.6,30.00,NNW,344,2.0,3.0,86,0.00,,,0.00,Wunderground v.1.15,2013-01-13 11:41:00,
2013-01-13 05:42:00,21.1,17.6,30.00,NNE,16,2.0,3.0,86,0.00,,,0.00,Wunderground v.1.15,2013-01-13 11:42:00,
2013-01-13 05:43:00,21.1,17.6,30.01,North,1,2.0,3.0,86,0.00,,,0.00,Wunderground v.1.15,2013-01-13 11:43:00,
2013-01-13 05:44:00,21.1,17.6,30.01,NNW,345,2.0,3.0,86,0.00,,,0.00,Wunderground v.1.15,2013-01-13 11:44:00,
2013-01-13 05:46:00,21.0,17.2,30.02,NNW,345,2.0,3.0,85,0.00,,,0.00,Wunderground v.1.15,2013-01-13 11:46:00,
2013-01-13 05:50:00,21.0,17.5,30.04,NNW,329,2.0,2.0,86,0.00,,,0.00,Wunderground v.1.15,2013-01-13 11:50:00,
2013-01-13 05:51:00,20.9,17.4,30.04,NNW,345,2.0,3.0,86,0.00,,,0.00,Wunderground v.1.15,2013-01-13 11:51:00,
2013-01-13 05:55:00,20.8,16.7,30.05,NW,307,2.0,3.0,84,0.00,,,0.00,Wunderground v.1.15,2013-01-13 11:55:00,
2013-01-13 05:56:00,20.7,16.6,30.05,WNW,298,2.0,3.0,84,0.00,,,0.00,Wunderground v.1.15,2013-01-13 11:56:00,
2013-01-13 05:59:00,20.6,16.5,30.05,WNW,301,2.0,3.0,84,0.00,,,0.00,Wunderground v.1.15,2013-01-13 11:59:00,
2013-01-13 06:00:00,20.6,16.5,30.05,WNW,283,2.0,2.0,84,0.00,,,0.00,Wunderground v.1.15,2013-01-13 12:00:00,
2013-01-13 06:04:00,20.6,16.8,30.04,WNW,301,1.0,2.0,85,0.00,,,0.00,Wunderground v.1.15,2013-01-13 12:04:00,
2013-01-13 06:06:00,20.5,16.4,30.03,NW,310,1.0,2.0,84,0.00,,,0.00,Wunderground v.1.15,2013-01-13 12:06:00,
2013-01-13 06:09:00,20.4,16.3,30.03,West,281,1.0,3.0,84,0.00,,,0.00,Wunderground v.1.15,2013-01-13 12:09:00,
2013-01-13 06:10:00,20.4,16.3,30.04,WNW,294,1.0,3.0,84,0.00,,,0.00,Wunderground v.1.15,2013-01-13 12:10:00,
2013-01-13 06:12:00,20.3,16.2,30.04,NW,322,1.0,3.0,84,0.00,,,0.00,Wunderground v.1.15,2013-01-13 12:12:00,
2013-01-13 06:14:00,20.3,16.2,30.05,WNW,293,1.0,3.0,84,0.00,,,0.00,Wunderground v.1.15,2013-01-13 12:14:00,
2013-01-13 06:17:00,20.2,16.1,30.04,WNW,301,1.0,3.0,84,0.00,,,0.00,Wunderground v.1.15,2013-01-13 12:17:00,
2013-01-13 06:19:00,20.1,16.0,30.05,NW,307,1.0,2.0,84,0.00,,,0.00,Wunderground v.1.15,2013-01-13 12:19:00,
2013-01-13 06:21:00,20.1,16.3,30.05,WNW,302,1.0,2.0,85,0.00,,,0.00,Wunderground v.1.15,2013-01-13 12:21:00,
2013-01-13 06:23:00,20.1,16.3,30.06,WNW,299,1.0,2.0,85,0.00,,,0.00,Wunderground v.1.15,2013-01-13 12:23:00,
2013-01-13 06:26:00,20.1,16.3,30.06,NW,319,1.0,2.0,85,0.00,,,0.00,Wunderground v.1.15,2013-01-13 12:26:00,
2013-01-13 06:27:00,20.1,16.3,30.05,North,5,1.0,2.0,85,0.00,,,0.00,Wunderground v.1.15,2013-01-13 12:27:00,
2013-01-13 06:29:00,20.1,16.3,30.05,NNW,342,1.0,3.0,85,0.00,,,0.00,Wunderground v.1.15,2013-01-13 12:29:00,
2013-01-13 06:32:00,20.1,16.6,30.04,NNW,342,1.0,2.0,86,0.00,,,0.00,Wunderground v.1.15,2013-01-13 12:32:00,
2013-01-13 06:33:00,20.1,16.6,30.05,WNW,300,1.0,2.0,86,0.00,,,0.00,Wunderground v.1.15,2013-01-13 12:33:00,
2013-01-13 06:34:00,20.1,16.3,30.05,NW,304,1.0,2.0,85,0.00,,,0.00,Wunderground v.1.15,2013-01-13 12:34:00,
2013-01-13 06:35:00,20.0,16.5,30.06,WNW,291,1.0,2.0,86,0.00,,,0.00,Wunderground v.1.15,2013-01-13 12:35:00,
2013-01-13 06:38:00,20.0,16.5,30.05,WNW,300,1.0,2.0,86,0.00,,,0.00,Wunderground v.1.15,2013-01-13 12:38:00,
2013-01-13 06:40:00,20.0,16.5,30.06,NNW,329,1.0,1.0,86,0.00,,,0.00,Wunderground v.1.15,2013-01-13 12:40:00,
2013-01-13 06:43:00,19.9,16.4,30.06,NW,304,1.0,4.0,86,0.00,,,0.00,Wunderground v.1.15,2013-01-13 12:43:00,
2013-01-13 06:45:00,19.8,16.3,30.06,WNW,300,1.0,4.0,86,0.00,,,0.00,Wunderground v.1.15,2013-01-13 12:45:00,
2013-01-13 06:47:00,19.8,16.3,30.05,WNW,302,1.0,4.0,86,0.00,,,0.00,Wunderground v.1.15,2013-01-13 12:47:00,
2013-01-13 06:49:00,19.7,16.2,30.05,NW,305,1.0,4.0,86,0.00,,,0.00,Wunderground v.1.15,2013-01-13 12:49:00,
2013-01-13 06:50:00,19.7,16.2,30.06,West,281,1.0,1.0,86,0.00,,,0.00,Wunderground v.1.15,2013-01-13 12:50:00,
2013-01-13 06:52:00,19.7,16.2,30.06,WNW,290,1.0,1.0,86,0.00,,,0.00,Wunderground v.1.15,2013-01-13 12:52:00,
2013-01-13 06:56:00,19.6,16.1,30.06,WNW,291,1.0,1.0,86,0.00,,,0.00,Wunderground v.1.15,2013-01-13 12:56:00,
2013-01-13 06:57:00,19.6,16.1,30.06,NNW,342,1.0,1.0,86,0.00,,,0.00,Wunderground v.1.15,2013-01-13 12:57:00,
2013-01-13 06:58:00,19.6,16.4,30.07,NNW,333,1.0,1.0,87,0.00,,,0.00,Wunderground v.1.15,2013-01-13 12:58:00,
2013-01-13 07:00:00,19.6,16.1,30.07,NW,307,1.0,1.0,86,0.00,,,0.00,Wunderground v.1.15,2013-01-13 13:00:00,
2013-01-13 07:01:00,19.6,16.1,30.07,NW,319,1.0,1.0,86,0.00,,,0.00,Wunderground v.1.15,2013-01-13 13:01:00,
2013-01-13 07:02:00,19.6,16.1,30.07,NW,311,1.0,1.0,86,0.00,,,0.00,Wunderground v.1.15,2013-01-13 13:02:00,
2013-01-13 07:06:00,19.6,16.1,30.06,NW,322,1.0,2.0,86,0.00,,,0.00,Wunderground v.1.15,2013-01-13 13:06:00,
2013-01-13 07:08:00,19.5,16.0,30.06,NW,322,1.0,4.0,86,0.00,,,0.00,Wunderground v.1.15,2013-01-13 13:08:00,
2013-01-13 07:09:00,19.5,16.0,30.06,WNW,295,1.0,4.0,86,0.00,,,0.00,Wunderground v.1.15,2013-01-13 13:09:00,
2013-01-13 07:11:00,19.6,16.1,30.05,North,8,1.0,3.0,86,0.00,,,0.00,Wunderground v.1.15,2013-01-13 13:11:00,
2013-01-13 07:13:00,19.6,16.4,30.05,NNW,342,2.0,4.0,87,0.00,,,0.00,Wunderground v.1.15,2013-01-13 13:13:00,
2013-01-13 07:14:00,19.7,16.5,30.05,NNW,338,2.0,4.0,87,0.00,,,0.00,Wunderground v.1.15,2013-01-13 13:14:00,
2013-01-13 07:17:00,19.7,16.5,30.04,NNW,342,1.0,4.0,87,0.00,,,0.00,Wunderground v.1.15,2013-01-13 13:17:00,
2013-01-13 07:20:00,19.7,16.5,30.05,NNW,328,1.0,1.0,87,0.00,,,0.00,Wunderground v.1.15,2013-01-13 13:20:00,
2013-01-13 07:21:00,19.7,16.5,30.05,NW,307,1.0,3.0,87,0.00,,,0.00,Wunderground v.1.15,2013-01-13 13:21:00,
2013-01-13 07:23:00,19.6,16.1,30.06,NW,304,1.0,3.0,86,0.00,,,0.00,Wunderground v.1.15,2013-01-13 13:23:00,
2013-01-13 07:26:00,19.6,16.1,30.07,NW,319,1.0,3.0,86,0.00,,,0.00,Wunderground v.1.15,2013-01-13 13:26:00,
2013-01-13 07:27:00,19.6,16.1,30.07,NNW,345,1.0,4.0,86,0.00,,,0.00,Wunderground v.1.15,2013-01-13 13:27:00,
2013-01-13 07:29:00,19.6,16.1,30.07,NW,304,1.0,4.0,86,0.00,,,0.00,Wunderground v.1.15,2013-01-13 13:29:00,
2013-01-13 07:31:00,19.5,16.0,30.07,WNW,302,1.0,1.0,86,0.00,,,0.00,Wunderground v.1.15,2013-01-13 13:31:00,
2013-01-13 07:32:00,19.5,16.0,30.07,NW,308,1.0,1.0,86,0.00,,,0.00,Wunderground v.1.15,2013-01-13 13:32:00,
2013-01-13 07:35:00,19.4,15.9,30.08,NW,308,1.0,2.0,86,0.00,,,0.00,Wunderground v.1.15,2013-01-13 13:35:00,
2013-01-13 07:36:00,19.5,15.7,30.08,NW,314,1.0,2.0,85,0.00,,,0.00,Wunderground v.1.15,2013-01-13 13:36:00,
2013-01-13 07:37:00,19.5,16.0,30.08,NW,309,1.0,2.0,86,0.00,,,0.00,Wunderground v.1.15,2013-01-13 13:37:00,
2013-01-13 07:41:00,19.5,15.7,30.09,NW,311,1.0,1.0,85,0.00,,,0.00,Wunderground v.1.15,2013-01-13 13:41:00,
2013-01-13 07:42:00,19.5,15.7,30.09,WNW,298,1.0,1.0,85,0.00,,,0.00,Wunderground v.1.15,2013-01-13 13:42:00,
2013-01-13 07:44:00,19.5,15.7,30.10,WNW,298,1.0,1.0,85,0.00,,,0.00,Wunderground v.1.15,2013-01-13 13:44:00,
2013-01-13 07:45:00,19.5,15.7,30.09,WNW,295,1.0,1.0,85,0.00,,,0.00,Wunderground v.1.15,2013-01-13 13:45:00,
2013-01-13 07:49:00,19.5,15.7,30.10,WNW,298,1.0,2.0,85,0.00,,,0.00,Wunderground v.1.15,2013-01-13 13:49:00,
2013-01-13 07:50:00,19.5,15.7,30.10,NW,307,1.0,2.0,85,0.00,,,0.00,Wunderground v.1.15,2013-01-13 13:50:00,
2013-01-13 07:51:00,19.6,15.8,30.10,WNW,284,1.0,2.0,85,0.00,,,0.00,Wunderground v.1.15,2013-01-13 13:51:00,
2013-01-13 07:53:00,19.6,15.8,30.08,NW,318,1.0,3.0,85,0.00,,,0.00,Wunderground v.1.15,2013-01-13 13:53:00,
2013-01-13 07:54:00,19.6,15.8,30.08,NNW,332,1.0,3.0,85,0.00,,,0.00,Wunderground v.1.15,2013-01-13 13:54:00,
2013-01-13 07:56:00,19.6,15.8,30.06,NNW,343,1.0,4.0,85,0.00,,,0.00,Wunderground v.1.15,2013-01-13 13:56:00,
2013-01-13 07:59:00,19.6,15.8,30.06,NW,308,2.0,4.0,85,0.00,,,0.00,Wunderground v.1.15,2013-01-13 13:59:00,
2013-01-13 08:00:00,19.6,15.8,30.07,WNW,291,2.0,2.0,85,0.00,,,0.00,Wunderground v.1.15,2013-01-13 14:00:00,
2013-01-13 08:01:00,19.6,15.8,30.07,NNE,25,2.0,4.0,85,0.00,,,0.00,Wunderground v.1.15,2013-01-13 14:01:00,
2013-01-13 08:04:00,19.7,15.9,30.07,WNW,298,2.0,4.0,85,0.00,,,0.00,Wunderground v.1.15,2013-01-13 14:04:00,
2013-01-13 08:05:00,19.7,15.9,30.07,WNW,283,2.0,4.0,85,0.00,,,0.00,Wunderground v.1.15,2013-01-13 14:05:00,
2013-01-13 08:06:00,19.6,15.8,30.07,North,349,2.0,4.0,85,0.00,,,0.00,Wunderground v.1.15,2013-01-13 14:06:00,
2013-01-13 08:07:00,19.6,15.8,30.07,NNW,347,2.0,4.0,85,0.00,,,0.00,Wunderground v.1.15,2013-01-13 14:07:00,
2013-01-13 08:11:00,19.5,15.5,30.08,West,281,1.0,1.0,84,0.00,,,0.00,Wunderground v.1.15,2013-01-13 14:11:00,
2013-01-13 08:12:00,19.5,15.5,30.08,WNW,303,1.0,1.0,84,0.00,,,0.00,Wunderground v.1.15,2013-01-13 14:12:00,
2013-01-13 08:13:00,19.5,15.5,30.08,North,359,1.0,1.0,84,0.00,,,0.00,Wunderground v.1.15,2013-01-13 14:13:00,
2013-01-13 08:16:00,19.4,15.4,30.08,NW,318,1.0,3.0,84,0.00,,,0.00,Wunderground v.1.15,2013-01-13 14:16:00,
2013-01-13 08:18:00,19.4,15.4,30.08,WNW,300,2.0,6.0,84,0.00,,,0.00,Wunderground v.1.15,2013-01-13 14:18:00,
2013-01-13 08:21:00,19.3,15.0,30.09,WNW,290,2.0,2.0,83,0.00,,,0.00,Wunderground v.1.15,2013-01-13 14:21:00,
2013-01-13 08:22:00,19.3,15.0,30.10,WNW,302,2.0,2.0,83,0.00,,,0.00,Wunderground v.1.15,2013-01-13 14:22:00,
2013-01-13 08:23:00,19.3,15.0,30.10,NW,312,2.0,2.0,83,0.00,,,0.00,Wunderground v.1.15,2013-01-13 14:23:00,
2013-01-13 08:27:00,19.4,15.4,30.10,WNW,294,2.0,4.0,84,0.00,,,0.00,Wunderground v.1.15,2013-01-13 14:27:00,
2013-01-13 08:29:00,19.5,15.5,30.09,NW,310,2.0,4.0,84,0.00,,,0.00,Wunderground v.1.15,2013-01-13 14:29:00,
2013-01-13 08:30:00,19.5,15.5,30.10,WNW,301,2.0,2.0,84,0.00,,,0.00,Wunderground v.1.15,2013-01-13 14:30:00,
2013-01-13 08:31:00,19.5,15.5,30.10,WNW,300,2.0,2.0,84,0.00,,,0.00,Wunderground v.1.15,2013-01-13 14:31:00,
2013-01-13 08:33:00,19.6,15.8,30.11,West,271,2.0,2.0,85,0.00,,,0.00,Wunderground v.1.15,2013-01-13 14:33:00,
2013-01-13 08:35:00,19.5,15.2,30.12,WNW,298,2.0,2.0,83,0.00,,,0.00,Wunderground v.1.15,2013-01-13 14:35:00,
2013-01-13 08:36:00,19.5,15.2,30.12,West,281,2.0,2.0,83,0.00,,,0.00,Wunderground v.1.15,2013-01-13 14:36:00,
2013-01-13 08:38:00,19.6,15.6,30.11,NW,308,2.0,2.0,84,0.00,,,0.00,Wunderground v.1.15,2013-01-13 14:38:00,
2013-01-13 08:40:00,19.5,15.2,30.11,WNW,290,2.0,2.0,83,0.00,,,0.00,Wunderground v.1.15,2013-01-13 14:40:00,
2013-01-13 08:43:00,19.5,15.5,30.11,West,274,2.0,2.0,84,0.00,,,0.00,Wunderground v.1.15,2013-01-13 14:43:00,
2013-01-13 08:47:00,19.4,15.1,30.13,WNW,283,2.0,5.0,83,0.00,,,0.00,Wunderground v.1.15,2013-01-13 14:47:00,
2013-01-13 08:48:00,19.4,15.1,30.13,West,274,2.0,7.0,83,0.00,,,0.00,Wunderground v.1.15,2013-01-13 14:48:00,
2013-01-13 08:50:00,19.4,15.1,30.13,West,276,2.0,4.0,83,0.00,,,0.00,Wunderground v.1.15,2013-01-13 14:50:00,
2013-01-13 08:53:00,19.4,15.1,30.13,WNW,283,3.0,4.0,83,0.00,,,0.00,Wunderground v.1.15,2013-01-13 14:53:00,
2013-01-13 08:55:00,19.4,15.1,30.13,WNW,299,3.0,4.0,83,0.00,,,0.00,Wunderground v.1.15,2013-01-13 14:55:00,
2013-01-13 08:57:00,19.4,15.1,30.12,WNW,295,2.0,4.0,83,0.00,,,0.00,Wunderground v.1.15,2013-01-13 14:57:00,
2013-01-13 09:00:00,19.3,14.7,30.11,WNW,290,2.0,2.0,82,0.00,,,0.00,Wunderground v.1.15,2013-01-13 15:00:00,
2013-01-13 09:02:00,19.3,15.0,30.10,West,281,2.0,4.0,83,0.00,,,0.00,Wunderground v.1.15,2013-01-13 15:02:00,
2013-01-13 09:03:00,19.3,15.3,30.11,West,259,2.0,4.0,84,0.00,,,0.00,Wunderground v.1.15,2013-01-13 15:03:00,
2013-01-13 09:06:00,19.3,15.0,30.13,WNW,290,2.0,4.0,83,0.00,,,0.00,Wunderground v.1.15,2013-01-13 15:06:00,
2013-01-13 09:08:00,19.4,15.1,30.13,NW,305,2.0,4.0,83,0.00,,,0.00,Wunderground v.1.15,2013-01-13 15:08:00,
2013-01-13 09:09:00,19.4,15.1,30.13,NW,326,2.0,4.0,83,0.00,,,0.00,Wunderground v.1.15,2013-01-13 15:09:00,
2013-01-13 09:11:00,19.3,15.0,30.13,West,277,2.0,2.0,83,0.00,,,0.00,Wunderground v.1.15,2013-01-13 15:11:00,
2013-01-13 09:13:00,19.3,15.0,30.14,WNW,300,2.0,5.0,83,0.00,,,0.00,Wunderground v.1.15,2013-01-13 15:13:00,
2013-01-13 09:16:00,19.3,15.0,30.12,WNW,284,3.0,5.0,83,0.00,,,0.00,Wunderground v.1.15,2013-01-13 15:16:00,
2013-01-13 09:19:00,19.4,15.1,30.10,WNW,288,2.0,5.0,83,0.00,,,0.00,Wunderground v.1.15,2013-01-13 15:19:00,
2013-01-13 09:21:00,19.4,15.4,30.09,NW,311,2.0,4.0,84,0.00,,,0.00,Wunderground v.1.15,2013-01-13 15:21:00,
2013-01-13 09:22:00,19.4,15.4,30.10,West,277,3.0,4.0,84,0.00,,,0.00,Wunderground v.1.15,2013-01-13 15:22:00,
2013-01-13 09:23:00,19.4,15.1,30.10,WNW,298,3.0,4.0,83,0.00,,,0.00,Wunderground v.1.15,2013-01-13 15:23:00,
2013-01-13 09:24:00,19.4,15.1,30.11,WNW,294,3.0,4.0,83,0.00,,,0.00,Wunderground v.1.15,2013-01-13 15:24:00,
2013-01-13 09:26:00,19.3,15.0,30.11,WNW,301,2.0,4.0,83,0.00,,,0.00,Wunderground v.1.15,2013-01-13 15:26:00,
2013-01-13 09:27:00,19.3,15.0,30.11,WNW,302,2.0,4.0,83,0.00,,,0.00,Wunderground v.1.15,2013-01-13 15:27:00,
2013-01-13 09:29:00,19.3,15.0,30.11,WNW,287,2.0,4.0,83,0.00,,,0.00,Wunderground v.1.15,2013-01-13 15:29:00,
2013-01-13 09:30:00,19.3,15.0,30.12,WNW,301,2.0,2.0,83,0.00,,,0.00,Wunderground v.1.15,2013-01-13 15:30:00,
2013-01-13 09:34:00,19.2,14.9,30.11,WNW,299,2.0,3.0,83,0.00,,,0.00,Wunderground v.1.15,2013-01-13 15:34:00,
2013-01-13 09:35:00,19.2,14.9,30.11,NW,309,2.0,4.0,83,0.00,,,0.00,Wunderground v.1.15,2013-01-13 15:35:00,
2013-01-13 09:36:00,19.2,14.9,30.11,NW,305,2.0,4.0,83,0.00,,,0.00,Wunderground v.1.15,2013-01-13 15:36:00,
2013-01-13 09:37:00,19.2,14.9,30.11,NNW,329,2.0,4.0,83,0.00,,,0.00,Wunderground v.1.15,2013-01-13 15:37:00,
2013-01-13 09:39:00,19.2,14.9,30.10,NW,311,2.0,4.0,83,0.00,,,0.00,Wunderground v.1.15,2013-01-13 15:39:00,
2013-01-13 09:40:00,19.2,14.9,30.10,NW,308,2.0,2.0,83,0.00,,,0.00,Wunderground v.1.15,2013-01-13 15:40:00,
2013-01-13 09:41:00,19.2,14.9,30.10,NW,310,2.0,3.0,83,0.00,,,0.00,Wunderground v.1.15,2013-01-13 15:41:00,
2013-01-13 09:42:00,19.2,14.9,30.10,NNW,327,2.0,3.0,83,0.00,,,0.00,Wunderground v.1.15,2013-01-13 15:42:00,
2013-01-13 09:45:00,19.2,14.9,30.11,NW,311,3.0,3.0,83,0.00,,,0.00,Wunderground v.1.15,2013-01-13 15:45:00,
2013-01-13 09:46:00,19.2,14.9,30.10,NW,322,3.0,3.0,83,0.00,,,0.00,Wunderground v.1.15,2013-01-13 15:46:00,
2013-01-13 09:50:00,19.4,15.1,30.10,NNW,336,2.0,3.0,83,0.00,,,0.00,Wunderground v.1.15,2013-01-13 15:50:00,
2013-01-13 09:51:00,19.4,15.4,30.10,WNW,295,2.0,3.0,84,0.00,,,0.00,Wunderground v.1.15,2013-01-13 15:51:00,
2013-01-13 09:52:00,19.5,15.5,30.10,WNW,302,2.0,3.0,84,0.00,,,0.00,Wunderground v.1.15,2013-01-13 15:52:00,
2013-01-13 09:54:00,19.5,15.5,30.11,NNW,342,2.0,3.0,84,0.00,,,0.00,Wunderground v.1.15,2013-01-13 15:54:00,
2013-01-13 09:56:00,19.6,15.6,30.11,NNW,327,2.0,3.0,84,0.00,,,0.00,Wunderground v.1.15,2013-01-13 15:56:00,
2013-01-13 09:59:00,19.7,15.6,30.11,North,357,2.0,4.0,84,0.00,,,0.00,Wunderground v.1.15,2013-01-13 15:59:00,
2013-01-13 10:02:00,19.7,15.6,30.11,NNW,328,2.0,2.0,84,0.00,,,0.00,Wunderground v.1.15,2013-01-13 16:02:00,
2013-01-13 10:03:00,19.7,15.4,30.11,NW,304,2.0,3.0,83,0.00,,,0.00,Wunderground v.1.15,2013-01-13 16:03:00,
2013-01-13 10:06:00,19.6,15.0,30.12,WNW,287,2.0,3.0,82,0.00,,,0.00,Wunderground v.1.15,2013-01-13 16:06:00,
2013-01-13 10:09:00,19.4,14.8,30.12,West,281,2.0,3.0,82,0.00,,,0.00,Wunderground v.1.15,2013-01-13 16:09:00,
2013-01-13 10:10:00,19.4,14.8,30.11,WNW,287,2.0,2.0,82,0.00,,,0.00,Wunderground v.1.15,2013-01-13 16:10:00,
2013-01-13 10:13:00,19.3,14.7,30.10,NNE,23,2.0,3.0,82,0.00,,,0.00,Wunderground v.1.15,2013-01-13 16:13:00,
2013-01-13 10:16:00,19.3,14.7,30.09,NW,310,2.0,4.0,82,0.00,,,0.00,Wunderground v.1.15,2013-01-13 16:16:00,
2013-01-13 10:17:00,19.3,14.7,30.09,NW,305,2.0,4.0,82,0.00,,,0.00,Wunderground v.1.15,2013-01-13 16:17:00,
2013-01-13 10:19:00,19.4,15.1,30.09,WSW,250,2.0,4.0,83,0.00,,,0.00,Wunderground v.1.15,2013-01-13 16:19:00,
2013-01-13 10:21:00,19.4,15.1,30.09,NW,312,2.0,3.0,83,0.00,,,0.00,Wunderground v.1.15,2013-01-13 16:21:00,
2013-01-13 10:24:00,19.4,15.1,30.10,NW,308,2.0,4.0,83,0.00,,,0.00,Wunderground v.1.15,2013-01-13 16:24:00,
2013-01-13 10:25:00,19.4,15.1,30.09,WNW,300,2.0,4.0,83,0.00,,,0.00,Wunderground v.1.15,2013-01-13 16:25:00,
2013-01-13 10:26:00,19.4,15.1,30.09,NNW,340,2.0,4.0,83,0.00,,,0.00,Wunderground v.1.15,2013-01-13 16:26:00,
2013-01-13 10:28:00,19.4,15.1,30.09,NNW,328,2.0,4.0,83,0.00,,,0.00,Wunderground v.1.15,2013-01-13 16:28:00,
2013-01-13 10:30:00,19.4,15.1,30.09,WNW,302,3.0,3.0,83,0.00,,,0.00,Wunderground v.1.15,2013-01-13 16:30:00,
2013-01-13 10:33:00,19.4,14.8,30.09,NW,326,2.0,3.0,82,0.00,,,0.00,Wunderground v.1.15,2013-01-13 16:33:00,
2013-01-13 10:34:00,19.4,15.1,30.09,NNW,345,2.0,3.0,83,0.00,,,0.00,Wunderground v.1.15,2013-01-13 16:34:00,
2013-01-13 10:35:00,19.4,15.1,30.09,NW,308,2.0,3.0,83,0.00,,,0.00,Wunderground v.1.15,2013-01-13 16:35:00,
2013-01-13 10:36:00,19.5,15.2,30.09,WNW,299,2.0,3.0,83,0.00,,,0.00,Wunderground v.1.15,2013-01-13 16:36:00,
2013-01-13 10:38:00,19.4,15.1,30.09,NNW,338,2.0,3.0,83,0.00,,,0.00,Wunderground v.1.15,2013-01-13 16:38:00,
2013-01-13 10:41:00,19.4,14.8,30.08,NW,322,2.0,2.0,82,0.00,,,0.00,Wunderground v.1.15,2013-01-13 16:41:00,
2013-01-13 10:42:00,19.4,15.1,30.08,NNW,339,2.0,2.0,83,0.00,,,0.00,Wunderground v.1.15,2013-01-13 16:42:00,
2013-01-13 10:43:00,19.4,15.1,30.08,WNW,296,2.0,2.0,83,0.00,,,0.00,Wunderground v.1.15,2013-01-13 16:43:00,
2013-01-13 10:47:00,19.6,15.3,30.08,NW,319,2.0,3.0,83,0.00,,,0.00,Wunderground v.1.15,2013-01-13 16:47:00,
2013-01-13 10:48:00,19.6,15.3,30.08,NNW,342,2.0,3.0,83,0.00,,,0.00,Wunderground v.1.15,2013-01-13 16:48:00,
2013-01-13 10:51:00,19.6,15.3,30.08,WNW,301,2.0,2.0,83,0.00,,,0.00,Wunderground v.1.15,2013-01-13 16:51:00,
2013-01-13 10:53:00,19.6,15.3,30.09,NW,311,2.0,3.0,83,0.00,,,0.00,Wunderground v.1.15,2013-01-13 16:53:00,
2013-01-13 10:54:00,19.6,15.3,30.10,NW,304,2.0,3.0,83,0.00,,,0.00,Wunderground v.1.15,2013-01-13 16:54:00,
2013-01-13 10:59:00,19.5,14.9,30.09,NW,315,2.0,3.0,82,0.00,,,0.00,Wunderground v.1.15,2013-01-13 16:59:00,
2013-01-13 11:00:00,19.5,14.9,30.09,NW,308,3.0,3.0,82,0.00,,,0.00,Wunderground v.1.15,2013-01-13 17:00:00,
2013-01-13 11:06:00,19.6,15.6,30.09,NNW,338,3.0,3.0,84,0.00,,,0.00,Wunderground v.1.15,2013-01-13 17:06:00,
2013-01-13 11:10:00,19.5,15.2,30.10,WNW,299,2.0,2.0,83,0.00,,,0.00,Wunderground v.1.15,2013-01-13 17:10:00,
2013-01-13 11:12:00,19.4,14.8,30.10,NW,310,3.0,3.0,82,0.00,,,0.00,Wunderground v.1.15,2013-01-13 17:12:00,
2013-01-13 11:13:00,19.4,14.8,30.10,WNW,303,3.0,5.0,82,0.00,,,0.00,Wunderground v.1.15,2013-01-13 17:13:00,
2013-01-13 11:14:00,19.3,14.7,30.10,WNW,294,3.0,5.0,82,0.00,,,0.00,Wunderground v.1.15,2013-01-13 17:14:00,
2013-01-13 11:16:00,19.4,15.1,30.09,WNW,295,3.0,5.0,83,0.00,,,0.00,Wunderground v.1.15,2013-01-13 17:16:00,
2013-01-13 11:18:00,19.5,15.2,30.09,WNW,290,3.0,5.0,83,0.00,,,0.00,Wunderground v.1.15,2013-01-13 17:18:00,
2013-01-13 11:19:00,19.5,15.2,30.09,NW,308,3.0,5.0,83,0.00,,,0.00,Wunderground v.1.15,2013-01-13 17:19:00,
2013-01-13 11:23:00,19.4,14.8,30.09,NNW,342,3.0,5.0,82,0.00,,,0.00,Wunderground v.1.15,2013-01-13 17:23:00,
2013-01-13 11:24:00,19.5,14.9,30.09,WNW,284,3.0,5.0,82,0.00,,,0.00,Wunderground v.1.15,2013-01-13 17:24:00,
2013-01-13 11:29:00,19.5,14.9,30.10,West,281,3.0,5.0,82,0.00,,,0.00,Wunderground v.1.15,2013-01-13 17:29:00,
2013-01-13 11:31:00,19.5,14.9,30.11,West,266,3.0,3.0,82,0.00,,,0.00,Wunderground v.1.15,2013-01-13 17:31:00,
2013-01-13 11:32:00,19.5,14.9,30.11,WNW,301,3.0,3.0,82,0.00,,,0.00,Wunderground v.1.15,2013-01-13 17:32:00,
2013-01-13 11:37:00,19.4,14.5,30.10,NW,308,3.0,3.0,81,0.00,,,0.00,Wunderground v.1.15,2013-01-13 17:37:00,
2013-01-13 11:38:00,19.4,14.8,30.10,WNW,300,3.0,3.0,82,0.00,,,0.00,Wunderground v.1.15,2013-01-13 17:38:00,
2013-01-13 11:39:00,19.5,15.2,30.10,WNW,298,3.0,3.0,83,0.00,,,0.00,Wunderground v.1.15,2013-01-13 17:39:00,
2013-01-13 11:40:00,19.6,15.3,30.09,NNW,328,3.0,3.0,83,0.00,,,0.00,Wunderground v.1.15,2013-01-13 17:40:00,
2013-01-13 11:43:00,19.8,15.7,30.09,NW,311,3.0,3.0,84,0.00,,,0.00,Wunderground v.1.15,2013-01-13 17:43:00,
2013-01-13 11:46:00,19.8,15.5,30.09,NW,307,3.0,3.0,83,0.00,,,0.00,Wunderground v.1.15,2013-01-13 17:46:00,
2013-01-13 11:48:00,19.6,14.7,30.10,WNW,302,3.0,3.0,81,0.00,,,0.00,Wunderground v.1.15,2013-01-13 17:48:00,
2013-01-13 11:50:00,19.5,14.6,30.10,NW,307,3.0,3.0,81,0.00,,,0.00,Wunderground v.1.15,2013-01-13 17:50:00,
2013-01-13 11:51:00,19.4,14.5,30.10,NNW,344,3.0,3.0,81,0.00,,,0.00,Wunderground v.1.15,2013-01-13 17:51:00,
2013-01-13 11:52:00,19.4,14.5,30.10,NW,314,3.0,3.0,81,0.00,,,0.00,Wunderground v.1.15,2013-01-13 17:52:00,
2013-01-13 11:53:00,19.5,14.9,30.10,WNW,296,3.0,3.0,82,0.00,,,0.00,Wunderground v.1.15,2013-01-13 17:53:00,
2013-01-13 11:55:00,19.5,15.2,30.10,West,273,3.0,4.0,83,0.00,,,0.00,Wunderground v.1.15,2013-01-13 17:55:00,
2013-01-13 11:57:00,19.5,14.9,30.11,WNW,295,3.0,5.0,82,0.00,,,0.00,Wunderground v.1.15,2013-01-13 17:57:00,
2013-01-13 11:59:00,19.5,14.6,30.11,West,269,3.0,5.0,81,0.00,,,0.00,Wunderground v.1.15,2013-01-13 17:59:00,
2013-01-13 12:00:00,19.5,14.6,30.11,WNW,301,3.0,3.0,81,0.00,,,0.00,Wunderground v.1.15,2013-01-13 18:00:00,
2013-01-13 12:04:00,19.4,14.5,30.11,NW,322,2.0,4.0,81,0.00,,,0.00,Wunderground v.1.15,2013-01-13 18:04:00,
2013-01-13 12:05:00,19.5,14.9,30.11,NW,319,2.0,4.0,82,0.00,,,0.00,Wunderground v.1.15,2013-01-13 18:05:00,
2013-01-13 12:06:00,19.5,14.9,30.11,WSW,256,2.0,4.0,82,0.00,,,0.00,Wunderground v.1.15,2013-01-13 18:06:00,
2013-01-13 12:10:00,19.5,14.9,30.11,NW,325,2.0,3.0,82,0.00,,,0.00,Wunderground v.1.15,2013-01-13 18:10:00,
2013-01-13 12:11:00,19.5,14.9,30.11,WNW,303,2.0,3.0,82,0.00,,,0.00,Wunderground v.1.15,2013-01-13 18:11:00,
2013-01-13 12:13:00,19.5,15.2,30.11,NW,315,2.0,3.0,83,0.00,,,0.00,Wunderground v.1.15,2013-01-13 18:13:00,
2013-01-13 12:17:00,19.7,15.6,30.11,WNW,301,2.0,3.0,84,0.00,,,0.00,Wunderground v.1.15,2013-01-13 18:17:00,
2013-01-13 12:19:00,19.8,15.2,30.11,West,280,2.0,3.0,82,0.00,,,0.00,Wunderground v.1.15,2013-01-13 18:19:00,
2013-01-13 12:21:00,19.7,15.1,30.11,West,264,2.0,2.0,82,0.00,,,0.00,Wunderground v.1.15,2013-01-13 18:21:00,
2013-01-13 12:24:00,19.7,15.1,30.11,NW,318,2.0,3.0,82,0.00,,,0.00,Wunderground v.1.15,2013-01-13 18:24:00,
2013-01-13 12:26:00,19.8,15.2,30.10,West,273,2.0,6.0,82,0.00,,,0.00,Wunderground v.1.15,2013-01-13 18:26:00,
2013-01-13 12:27:00,19.8,15.2,30.10,WNW,302,2.0,6.0,82,0.00,,,0.00,Wunderground v.1.15,2013-01-13 18:27:00,
2013-01-13 12:31:00,19.7,15.1,30.10,WNW,303,2.0,4.0,82,0.00,,,0.00,Wunderground v.1.15,2013-01-13 18:31:00,
2013-01-13 12:32:00,19.7,14.8,30.10,North,6,2.0,4.0,81,0.00,,,0.00,Wunderground v.1.15,2013-01-13 18:32:00,
2013-01-13 12:36:00,19.8,15.2,30.11,NW,315,2.0,4.0,82,0.00,,,0.00,Wunderground v.1.15,2013-01-13 18:36:00,
2013-01-13 12:37:00,19.8,15.2,30.10,WNW,293,2.0,4.0,82,0.00,,,0.00,Wunderground v.1.15,2013-01-13 18:37:00,
2013-01-13 12:40:00,20.1,15.8,30.10,WNW,297,2.0,2.0,83,0.00,,,0.00,Wunderground v.1.15,2013-01-13 18:40:00,
2013-01-13 12:41:00,20.2,15.9,30.09,WNW,295,2.0,2.0,83,0.00,,,0.00,Wunderground v.1.15,2013-01-13 18:41:00,
2013-01-13 12:42:00,20.3,16.0,30.10,West,260,2.0,2.0,83,0.00,,,0.00,Wunderground v.1.15,2013-01-13 18:42:00,
2013-01-13 12:47:00,20.1,15.2,30.09,WNW,301,2.0,4.0,81,0.00,,,0.00,Wunderground v.1.15,2013-01-13 18:47:00,
2013-01-13 12:48:00,20.1,15.2,30.09,NNW,330,2.0,4.0,81,0.00,,,0.00,Wunderground v.1.15,2013-01-13 18:48:00,
2013-01-13 12:49:00,19.9,14.7,30.09,NW,308,2.0,4.0,80,0.00,,,0.00,Wunderground v.1.15,2013-01-13 18:49:00,
2013-01-13 12:50:00,19.8,14.6,30.08,NW,313,2.0,2.0,80,0.00,,,0.00,Wunderground v.1.15,2013-01-13 18:50:00,
2013-01-13 12:54:00,19.8,14.9,30.09,West,278,3.0,5.0,81,0.00,,,0.00,Wunderground v.1.15,2013-01-13 18:54:00,
2013-01-13 12:56:00,19.7,14.8,30.10,WNW,301,3.0,5.0,81,0.00,,,0.00,Wunderground v.1.15,2013-01-13 18:56:00,
2013-01-13 13:00:00,19.8,14.9,30.10,NW,311,2.0,2.0,81,0.00,,,0.00,Wunderground v.1.15,2013-01-13 19:00:00,
2013-01-13 13:01:00,19.8,14.9,30.10,NNW,345,2.0,5.0,81,0.00,,,0.00,Wunderground v.1.15,2013-01-13 19:01:00,
2013-01-13 13:02:00,19.8,14.9,30.10,NNW,331,2.0,5.0,81,0.00,,,0.00,Wunderground v.1.15,2013-01-13 19:02:00,
2013-01-13 13:06:00,20.0,15.4,30.10,NW,304,1.0,5.0,82,0.00,,,0.00,Wunderground v.1.15,2013-01-13 19:06:00,
2013-01-13 13:07:00,20.0,15.4,30.10,NW,305,1.0,5.0,82,0.00,,,0.00,Wunderground v.1.15,2013-01-13 19:07:00,
2013-01-13 13:10:00,20.0,15.7,30.10,NNW,340,2.0,4.0,83,0.00,,,0.00,Wunderground v.1.15,2013-01-13 19:10:00,
2013-01-13 13:13:00,19.9,15.6,30.10,NNW,334,2.0,4.0,83,0.00,,,0.00,Wunderground v.1.15,2013-01-13 19:13:00,
2013-01-13 13:14:00,20.0,15.4,30.10,NW,307,2.0,4.0,82,0.00,,,0.00,Wunderground v.1.15,2013-01-13 19:14:00,
2013-01-13 13:15:00,20.0,15.7,30.11,NNW,342,2.0,4.0,83,0.00,,,0.00,Wunderground v.1.15,2013-01-13 19:15:00,
2013-01-13 13:17:00,20.0,15.7,30.10,NW,311,2.0,4.0,83,0.00,,,0.00,Wunderground v.1.15,2013-01-13 19:17:00,
2013-01-13 13:20:00,19.9,15.3,30.10,NNW,334,2.0,3.0,82,0.00,,,0.00,Wunderground v.1.15,2013-01-13 19:20:00,
2013-01-13 13:22:00,19.9,15.6,30.10,WNW,301,2.0,3.0,83,0.00,,,0.00,Wunderground v.1.15,2013-01-13 19:22:00,
2013-01-13 13:23:00,19.8,15.5,30.10,WNW,293,2.0,3.0,83,0.00,,,0.00,Wunderground v.1.15,2013-01-13 19:23:00,
2013-01-13 13:25:00,19.8,15.5,30.10,NW,308,2.0,3.0,83,0.00,,,0.00,Wunderground v.1.15,2013-01-13 19:25:00,
2013-01-13 13:29:00,19.7,15.6,30.10,NNW,345,2.0,3.0,84,0.00,,,0.00,Wunderground v.1.15,2013-01-13 19:29:00,
2013-01-13 13:31:00,19.8,15.7,30.10,NNW,342,2.0,4.0,84,0.00,,,0.00,Wunderground v.1.15,2013-01-13 19:31:00,
2013-01-13 13:34:00,19.6,15.6,30.10,NW,311,2.0,5.0,84,0.00,,,0.00,Wunderground v.1.15,2013-01-13 19:34:00,
2013-01-13 13:37:00,19.4,15.4,30.10,North,6,3.0,5.0,84,0.00,,,0.00,Wunderground v.1.15,2013-01-13 19:37:00,
2013-01-13 13:38:00,19.4,15.4,30.09,NNW,334,3.0,5.0,84,0.00,,,0.00,Wunderground v.1.15,2013-01-13 19:38:00,
2013-01-13 13:40:00,19.4,15.4,30.10,NW,319,3.0,3.0,84,0.00,,,0.00,Wunderground v.1.15,2013-01-13 19:40:00,
2013-01-13 13:44:00,19.6,15.6,30.10,North,349,3.0,4.0,84,0.00,,,0.00,Wunderground v.1.15,2013-01-13 19:44:00,
2013-01-13 13:45:00,19.6,15.6,30.10,WNW,294,3.0,4.0,84,0.00,,,0.00,Wunderground v.1.15,2013-01-13 19:45:00,
2013-01-13 13:49:00,20.0,15.9,30.11,NW,324,2.0,4.0,84,0.00,,,0.00,Wunderground v.1.15,2013-01-13 19:49:00,
2013-01-13 13:50:00,20.0,15.9,30.10,NW,314,2.0,4.0,84,0.00,,,0.00,Wunderground v.1.15,2013-01-13 19:50:00,
2013-01-13 13:52:00,20.2,16.1,30.11,NW,315,2.0,4.0,84,0.00,,,0.00,Wunderground v.1.15,2013-01-13 19:52:00,
2013-01-13 13:54:00,20.4,16.1,30.11,NW,314,2.0,4.0,83,0.00,,,0.00,Wunderground v.1.15,2013-01-13 19:54:00,
2013-01-13 13:57:00,20.2,15.3,30.11,West,263,2.0,6.0,81,0.00,,,0.00,Wunderground v.1.15,2013-01-13 19:57:00,
2013-01-13 14:00:00,20.0,14.8,30.11,WNW,291,3.0,3.0,80,0.00,,,0.00,Wunderground v.1.15,2013-01-13 20:00:00,
2013-01-13 14:02:00,19.8,14.6,30.11,WNW,298,3.0,3.0,80,0.00,,,0.00,Wunderground v.1.15,2013-01-13 20:02:00,
2013-01-13 14:03:00,19.8,14.6,30.11,WNW,295,3.0,3.0,80,0.00,,,0.00,Wunderground v.1.15,2013-01-13 20:03:00,
2013-01-13 14:05:00,19.9,15.0,30.12,NW,308,2.0,4.0,81,0.00,,,0.00,Wunderground v.1.15,2013-01-13 20:05:00,
2013-01-13 14:07:00,20.0,15.4,30.12,NW,316,2.0,4.0,82,0.00,,,0.00,Wunderground v.1.15,2013-01-13 20:07:00,
2013-01-13 14:10:00,20.0,15.4,30.12,NW,311,2.0,2.0,82,0.00,,,0.00,Wunderground v.1.15,2013-01-13 20:10:00,
2013-01-13 14:12:00,19.9,15.0,30.11,NW,311,2.0,4.0,81,0.00,,,0.00,Wunderground v.1.15,2013-01-13 20:12:00,
2013-01-13 14:14:00,19.9,15.0,30.12,WNW,283,2.0,4.0,81,0.00,,,0.00,Wunderground v.1.15,2013-01-13 20:14:00,
2013-01-13 14:15:00,19.9,15.0,30.12,WNW,301,2.0,4.0,81,0.00,,,0.00,Wunderground v.1.15,2013-01-13 20:15:00,
2013-01-13 14:18:00,19.8,14.6,30.12,West,270,2.0,4.0,80,0.00,,,0.00,Wunderground v.1.15,2013-01-13 20:18:00,
2013-01-13 14:22:00,19.8,14.6,30.13,NW,314,2.0,4.0,80,0.00,,,0.00,Wunderground v.1.15,2013-01-13 20:22:00,
2013-01-13 14:24:00,19.8,14.9,30.13,WNW,297,2.0,4.0,81,0.00,,,0.00,Wunderground v.1.15,2013-01-13 20:24:00,
2013-01-13 14:27:00,19.8,14.6,30.13,WNW,287,2.0,4.0,80,0.00,,,0.00,Wunderground v.1.15,2013-01-13 20:27:00,
2013-01-13 14:28:00,19.7,14.5,30.13,NW,305,2.0,4.0,80,0.00,,,0.00,Wunderground v.1.15,2013-01-13 20:28:00,
2013-01-13 14:29:00,19.7,14.5,30.13,NNW,329,2.0,3.0,80,0.00,,,0.00,Wunderground v.1.15,2013-01-13 20:29:00,
2013-01-13 14:32:00,19.7,14.8,30.13,NW,304,2.0,3.0,81,0.00,,,0.00,Wunderground v.1.15,2013-01-13 20:32:00,
2013-01-13 14:35:00,19.6,14.4,30.13,NW,326,2.0,3.0,80,0.00,,,0.00,Wunderground v.1.15,2013-01-13 20:35:00,
2013-01-13 14:37:00,19.7,14.8,30.13,WNW,295,2.0,4.0,81,0.00,,,0.00,Wunderground v.1.15,2013-01-13 20:37:00,
2013-01-13 14:39:00,19.7,14.5,30.13,WNW,302,2.0,4.0,80,0.00,,,0.00,Wunderground v.1.15,2013-01-13 20:39:00,
2013-01-13 14:40:00,19.6,14.4,30.13,NW,312,2.0,3.0,80,0.00,,,0.00,Wunderground v.1.15,2013-01-13 20:40:00,
2013-01-13 14:41:00,19.6,14.7,30.13,WNW,296,3.0,3.0,81,0.00,,,0.00,Wunderground v.1.15,2013-01-13 20:41:00,
2013-01-13 14:42:00,19.6,14.7,30.13,WNW,303,3.0,3.0,81,0.00,,,0.00,Wunderground v.1.15,2013-01-13 20:42:00,
2013-01-13 14:44:00,19.6,14.7,30.13,NNW,338,3.0,3.0,81,0.00,,,0.00,Wunderground v.1.15,2013-01-13 20:44:00,
2013-01-13 14:47:00,19.7,15.1,30.13,NNW,336,2.0,3.0,82,0.00,,,0.00,Wunderground v.1.15,2013-01-13 20:47:00,
2013-01-13 14:48:00,19.7,15.1,30.13,NNW,336,3.0,3.0,82,0.00,,,0.00,Wunderground v.1.15,2013-01-13 20:48:00,
2013-01-13 14:49:00,19.7,14.8,30.13,WNW,283,2.0,3.0,81,0.00,,,0.00,Wunderground v.1.15,2013-01-13 20:49:00,
2013-01-13 14:51:00,19.6,14.7,30.13,NW,308,2.0,3.0,81,0.00,,,0.00,Wunderground v.1.15,2013-01-13 20:51:00,
2013-01-13 14:52:00,19.6,14.7,30.13,WNW,290,2.0,5.0,81,0.00,,,0.00,Wunderground v.1.15,2013-01-13 20:52:00,
2013-01-13 14:53:00,19.5,14.3,30.13,West,280,2.0,5.0,80,0.00,,,0.00,Wunderground v.1.15,2013-01-13 20:53:00,
2013-01-13 14:56:00,19.4,14.2,30.13,WNW,292,2.0,5.0,80,0.00,,,0.00,Wunderground v.1.15,2013-01-13 20:56:00,
2013-01-13 14:57:00,19.4,14.5,30.14,WNW,297,2.0,5.0,81,0.00,,,0.00,Wunderground v.1.15,2013-01-13 20:57:00,
2013-01-13 14:58:00,19.5,14.6,30.13,West,278,2.0,5.0,81,0.00,,,0.00,Wunderground v.1.15,2013-01-13 20:58:00,
2013-01-13 15:00:00,19.5,14.6,30.14,NW,322,2.0,2.0,81,0.00,,,0.00,Wunderground v.1.15,2013-01-13 21:00:00,
2013-01-13 15:01:00,19.5,14.6,30.14,WNW,300,2.0,2.0,81,0.00,,,0.00,Wunderground v.1.15,2013-01-13 21:01:00,
2013-01-13 15:05:00,19.3,14.4,30.14,NW,318,3.0,4.0,81,0.00,,,0.00,Wunderground v.1.15,2013-01-13 21:05:00,
2013-01-13 15:06:00,19.3,14.4,30.14,NW,325,3.0,4.0,81,0.00,,,0.00,Wunderground v.1.15,2013-01-13 21:06:00,
2013-01-13 15:07:00,19.3,14.4,30.14,WNW,298,3.0,4.0,81,0.00,,,0.00,Wunderground v.1.15,2013-01-13 21:07:00,
2013-01-13 15:11:00,19.3,14.4,30.14,NW,315,3.0,3.0,81,0.00,,,0.00,Wunderground v.1.15,2013-01-13 21:11:00,
2013-01-13 15:14:00,19.2,14.3,30.14,West,281,3.0,3.0,81,0.00,,,0.00,Wunderground v.1.15,2013-01-13 21:14:00,
2013-01-13 15:15:00,19.2,14.0,30.14,West,272,3.0,3.0,80,0.00,,,0.00,Wunderground v.1.15,2013-01-13 21:15:00,
2013-01-13 15:17:00,19.2,14.0,30.15,West,278,2.0,3.0,80,0.00,,,0.00,Wunderground v.1.15,2013-01-13 21:17:00,
2013-01-13 15:18:00,19.2,14.0,30.15,West,268,2.0,6.0,80,0.00,,,0.00,Wunderground v.1.15,2013-01-13 21:18:00,
2013-01-13 15:20:00,19.1,13.9,30.14,WNW,284,3.0,3.0,80,0.00,,,0.00,Wunderground v.1.15,2013-01-13 21:20:00,
2013-01-13 15:22:00,19.2,14.0,30.15,NNW,338,3.0,3.0,80,0.00,,,0.00,Wunderground v.1.15,2013-01-13 21:22:00,
2013-01-13 15:23:00,19.2,14.0,30.15,WNW,295,3.0,3.0,80,0.00,,,0.00,Wunderground v.1.15,2013-01-13 21:23:00,
2013-01-13 15:25:00,19.2,14.0,30.15,WNW,298,3.0,3.0,80,0.00,,,0.00,Wunderground v.1.15,2013-01-13 21:25:00,
2013-01-13 15:28:00,19.2,14.0,30.15,WNW,283,3.0,3.0,80,0.00,,,0.00,Wunderground v.1.15,2013-01-13 21:28:00,
2013-01-13 15:30:00,19.1,13.9,30.16,WNW,293,3.0,6.0,80,0.00,,,0.00,Wunderground v.1.15,2013-01-13 21:30:00,
2013-01-13 15:31:00,19.1,13.9,30.16,WNW,301,3.0,6.0,80,0.00,,,0.00,Wunderground v.1.15,2013-01-13 21:31:00,
2013-01-13 15:34:00,19.0,13.6,30.16,NW,311,3.0,6.0,79,0.00,,,0.00,Wunderground v.1.15,2013-01-13 21:34:00,
2013-01-13 15:36:00,18.9,13.7,30.16,WNW,283,3.0,6.0,80,0.00,,,0.00,Wunderground v.1.15,2013-01-13 21:36:00,
2013-01-13 15:37:00,18.9,13.7,30.16,WNW,287,3.0,6.0,80,0.00,,,0.00,Wunderground v.1.15,2013-01-13 21:37:00,
2013-01-13 15:38:00,18.9,13.7,30.16,NW,312,3.0,6.0,80,0.00,,,0.00,Wunderground v.1.15,2013-01-13 21:38:00,
2013-01-13 15:42:00,19.0,14.1,30.17,NW,315,2.0,3.0,81,0.00,,,0.00,Wunderground v.1.15,2013-01-13 21:42:00,
2013-01-13 15:46:00,18.9,13.7,30.18,NW,311,2.0,3.0,80,0.00,,,0.00,Wunderground v.1.15,2013-01-13 21:46:00,
2013-01-13 15:48:00,18.9,13.7,30.18,WNW,290,2.0,3.0,80,0.00,,,0.00,Wunderground v.1.15,2013-01-13 21:48:00,
2013-01-13 15:49:00,18.8,13.7,30.18,West,273,2.0,6.0,80,0.00,,,0.00,Wunderground v.1.15,2013-01-13 21:49:00,
2013-01-13 15:50:00,18.8,13.4,30.18,WNW,299,3.0,3.0,79,0.00,,,0.00,Wunderground v.1.15,2013-01-13 21:50:00,
2013-01-13 15:54:00,18.5,13.1,30.17,WNW,293,3.0,7.0,79,0.00,,,0.00,Wunderground v.1.15,2013-01-13 21:54:00,
2013-01-13 15:56:00,18.4,13.0,30.18,WNW,291,3.0,7.0,79,0.00,,,0.00,Wunderground v.1.15,2013-01-13 21:56:00,
2013-01-13 15:58:00,18.5,13.1,30.18,WNW,295,3.0,7.0,79,0.00,,,0.00,Wunderground v.1.15,2013-01-13 21:58:00,
2013-01-13 16:01:00,18.6,12.9,30.18,WNW,285,3.0,3.0,78,0.00,,,0.00,Wunderground v.1.15,2013-01-13 22:01:00,
2013-01-13 16:03:00,18.8,13.1,30.18,WNW,283,3.0,4.0,78,0.00,,,0.00,Wunderground v.1.15,2013-01-13 22:03:00,
2013-01-13 16:04:00,18.9,13.2,30.19,WNW,290,3.0,4.0,78,0.00,,,0.00,Wunderground v.1.15,2013-01-13 22:04:00,
2013-01-13 16:05:00,18.9,13.2,30.19,WNW,291,3.0,4.0,78,0.00,,,0.00,Wunderground v.1.15,2013-01-13 22:05:00,
2013-01-13 16:09:00,19.0,12.7,30.19,West,266,3.0,4.0,76,0.00,,,0.00,Wunderground v.1.15,2013-01-13 22:09:00,
2013-01-13 16:10:00,19.0,12.7,30.19,West,278,3.0,3.0,76,0.00,,,0.00,Wunderground v.1.15,2013-01-13 22:10:00,
2013-01-13 16:12:00,19.0,12.7,30.18,West,274,3.0,10.0,76,0.00,,,0.00,Wunderground v.1.15,2013-01-13 22:12:00,
2013-01-13 16:14:00,18.8,12.5,30.19,West,274,4.0,10.0,76,0.00,,,0.00,Wunderground v.1.15,2013-01-13 22:14:00,
2013-01-13 16:17:00,18.8,12.5,30.19,WNW,298,4.0,10.0,76,0.00,,,0.00,Wunderground v.1.15,2013-01-13 22:17:00,
2013-01-13 16:19:00,18.9,12.6,30.19,WNW,283,4.0,4.0,76,0.00,,,0.00,Wunderground v.1.15,2013-01-13 22:19:00,
2013-01-13 16:22:00,18.9,12.3,30.19,WNW,283,3.0,4.0,75,0.00,,,0.00,Wunderground v.1.15,2013-01-13 22:22:00,
2013-01-13 16:25:00,18.9,12.6,30.19,WNW,283,3.0,4.0,76,0.00,,,0.00,Wunderground v.1.15,2013-01-13 22:25:00,
2013-01-13 16:27:00,18.7,12.1,30.19,WNW,284,3.0,7.0,75,0.00,,,0.00,Wunderground v.1.15,2013-01-13 22:27:00,
2013-01-13 16:29:00,18.6,12.0,30.19,West,276,3.0,7.0,75,0.00,,,0.00,Wunderground v.1.15,2013-01-13 22:29:00,
2013-01-13 16:30:00,18.5,12.2,30.19,West,266,4.0,8.0,76,0.00,,,0.00,Wunderground v.1.15,2013-01-13 22:30:00,
2013-01-13 16:33:00,18.4,12.1,30.20,WSW,252,4.0,10.0,76,0.00,,,0.00,Wunderground v.1.15,2013-01-13 22:33:00,
2013-01-13 16:36:00,18.2,11.9,30.20,West,278,5.0,10.0,76,0.00,,,0.00,Wunderground v.1.15,2013-01-13 22:36:00,
2013-01-13 16:38:00,18.1,12.1,30.20,WNW,283,5.0,10.0,77,0.00,,,0.00,Wunderground v.1.15,2013-01-13 22:38:00,
2013-01-13 16:40:00,18.0,11.7,30.20,WNW,299,4.0,4.0,76,0.00,,,0.00,Wunderground v.1.15,2013-01-13 22:40:00,
2013-01-13 16:41:00,17.9,11.6,30.20,West,274,4.0,4.0,76,0.00,,,0.00,Wunderground v.1.15,2013-01-13 22:41:00,
2013-01-13 16:42:00,17.8,11.5,30.21,West,277,4.0,4.0,76,0.00,,,0.00,Wunderground v.1.15,2013-01-13 22:42:00,
2013-01-13 16:46:00,17.5,11.5,30.21,West,280,4.0,8.0,77,0.00,,,0.00,Wunderground v.1.15,2013-01-13 22:46:00,
2013-01-13 16:47:00,17.4,11.4,30.21,West,277,5.0,8.0,77,0.00,,,0.00,Wunderground v.1.15,2013-01-13 22:47:00,
2013-01-13 16:48:00,17.3,11.3,30.21,WNW,301,5.0,9.0,77,0.00,,,0.00,Wunderground v.1.15,2013-01-13 22:48:00,
2013-01-13 16:49:00,17.2,11.2,30.21,West,281,5.0,5.0,77,0.00,,,0.00,Wunderground v.1.15,2013-01-13 22:49:00,
2013-01-13 16:54:00,17.0,11.3,30.22,West,277,5.0,6.0,78,0.00,,,0.00,Wunderground v.1.15,2013-01-13 22:54:00,
2013-01-13 16:55:00,16.9,11.2,30.22,NW,326,5.0,6.0,78,0.00,,,0.00,Wunderground v.1.15,2013-01-13 22:55:00,
2013-01-13 16:59:00,16.7,11.3,30.23,WNW,287,5.0,7.0,79,0.00,,,0.00,Wunderground v.1.15,2013-01-13 22:59:00,
2013-01-13 17:00:00,16.7,11.3,30.23,West,280,5.0,5.0,79,0.00,,,0.00,Wunderground v.1.15,2013-01-13 23:00:00,
2013-01-13 17:01:00,16.7,11.3,30.23,WNW,290,4.0,5.0,79,0.00,,,0.00,Wunderground v.1.15,2013-01-13 23:01:00,
2013-01-13 17:05:00,16.6,10.9,30.23,NNW,328,4.0,6.0,78,0.00,,,0.00,Wunderground v.1.15,2013-01-13 23:05:00,
2013-01-13 17:06:00,16.6,10.9,30.23,WNW,288,4.0,6.0,78,0.00,,,0.00,Wunderground v.1.15,2013-01-13 23:06:00,
2013-01-13 17:07:00,16.6,10.9,30.23,WNW,287,4.0,6.0,78,0.00,,,0.00,Wunderground v.1.15,2013-01-13 23:07:00,
2013-01-13 17:10:00,16.5,10.8,30.23,WNW,298,4.0,4.0,78,0.00,,,0.00,Wunderground v.1.15,2013-01-13 23:10:00,
2013-01-13 17:12:00,16.4,10.7,30.23,West,280,4.0,7.0,78,0.00,,,0.00,Wunderground v.1.15,2013-01-13 23:12:00,
2013-01-13 17:14:00,16.4,10.7,30.23,West,274,4.0,8.0,78,0.00,,,0.00,Wunderground v.1.15,2013-01-13 23:14:00,
2013-01-13 17:15:00,16.4,10.7,30.23,WNW,285,4.0,8.0,78,0.00,,,0.00,Wunderground v.1.15,2013-01-13 23:15:00,
2013-01-13 17:17:00,16.3,10.6,30.24,West,279,4.0,8.0,78,0.00,,,0.00,Wunderground v.1.15,2013-01-13 23:17:00,
2013-01-13 17:19:00,16.3,10.6,30.24,WNW,288,4.0,8.0,78,0.00,,,0.00,Wunderground v.1.15,2013-01-13 23:19:00,
2013-01-13 17:20:00,16.3,10.9,30.24,WSW,248,3.0,6.0,79,0.00,,,0.00,Wunderground v.1.15,2013-01-13 23:20:00,
2013-01-13 17:21:00,16.2,10.8,30.24,NW,318,4.0,6.0,79,0.00,,,0.00,Wunderground v.1.15,2013-01-13 23:21:00,
2013-01-13 17:24:00,16.2,10.5,30.24,WSW,257,3.0,6.0,78,0.00,,,0.00,Wunderground v.1.15,2013-01-13 23:24:00,
2013-01-13 17:25:00,16.1,10.7,30.24,West,275,3.0,6.0,79,0.00,,,0.00,Wunderground v.1.15,2013-01-13 23:25:00,
2013-01-13 17:26:00,16.1,10.7,30.24,WNW,290,3.0,6.0,79,0.00,,,0.00,Wunderground v.1.15,2013-01-13 23:26:00,
2013-01-13 17:27:00,16.1,10.4,30.24,WNW,290,3.0,6.0,78,0.00,,,0.00,Wunderground v.1.15,2013-01-13 23:27:00,
2013-01-13 17:29:00,16.0,10.6,30.24,WNW,287,3.0,6.0,79,0.00,,,0.00,Wunderground v.1.15,2013-01-13 23:29:00,
2013-01-13 17:30:00,16.0,10.6,30.25,WNW,297,3.0,3.0,79,0.00,,,0.00,Wunderground v.1.15,2013-01-13 23:30:00,
2013-01-13 17:33:00,15.9,10.5,30.25,WNW,290,2.0,3.0,79,0.00,,,0.00,Wunderground v.1.15,2013-01-13 23:33:00,
2013-01-13 17:34:00,15.8,10.4,30.24,NW,305,2.0,3.0,79,0.00,,,0.00,Wunderground v.1.15,2013-01-13 23:34:00,
2013-01-13 17:36:00,15.8,10.4,30.24,West,278,1.0,4.0,79,0.00,,,0.00,Wunderground v.1.15,2013-01-13 23:36:00,
2013-01-13 17:37:00,15.7,10.3,30.24,WNW,283,1.0,4.0,79,0.00,,,0.00,Wunderground v.1.15,2013-01-13 23:37:00,
2013-01-13 17:39:00,15.7,10.3,30.25,WNW,302,1.0,4.0,79,0.00,,,0.00,Wunderground v.1.15,2013-01-13 23:39:00,
2013-01-13 17:40:00,15.7,10.6,30.25,WNW,290,1.0,1.0,80,0.00,,,0.00,Wunderground v.1.15,2013-01-13 23:40:00,
2013-01-13 17:45:00,15.6,10.5,30.25,WSW,257,1.0,2.0,80,0.00,,,0.00,Wunderground v.1.15,2013-01-13 23:45:00,
2013-01-13 17:48:00,15.5,10.4,30.25,WNW,286,1.0,2.0,80,0.00,,,0.00,Wunderground v.1.15,2013-01-13 23:48:00,
2013-01-13 17:50:00,15.4,10.3,30.25,WSW,256,1.0,4.0,80,0.00,,,0.00,Wunderground v.1.15,2013-01-13 23:50:00,
2013-01-13 17:52:00,15.4,10.3,30.25,West,280,2.0,4.0,80,0.00,,,0.00,Wunderground v.1.15,2013-01-13 23:52:00,
2013-01-13 17:57:00,15.4,10.3,30.25,WNW,283,2.0,4.0,80,0.00,,,0.00,Wunderground v.1.15,2013-01-13 23:57:00,
2013-01-13 17:59:00,15.3,10.2,30.26,West,278,2.0,4.0,80,0.00,,,0.00,Wunderground v.1.15,2013-01-13 23:59:00,
2013-01-13 18:00:00,15.3,10.2,30.25,WNW,283,2.0,2.0,80,0.00,,,0.00,Wunderground v.1.15,2013-01-14 00:00:00,
2013-01-13 18:02:00,15.3,10.2,30.25,West,273,2.0,2.0,80,0.00,,,0.00,Wunderground v.1.15,2013-01-14 00:02:00,
2013-01-13 18:05:00,15.2,10.1,30.26,West,280,1.0,2.0,80,0.00,,,0.00,Wunderground v.1.15,2013-01-14 00:05:00,
2013-01-13 18:08:00,15.2,10.4,30.26,West,259,1.0,2.0,81,0.00,,,0.00,Wunderground v.1.15,2013-01-14 00:08:00,
2013-01-13 18:10:00,15.2,10.4,30.26,West,270,1.0,1.0,81,0.00,,,0.00,Wunderground v.1.15,2013-01-14 00:10:00,
2013-01-13 18:11:00,15.2,10.4,30.26,West,277,1.0,2.0,81,0.00,,,0.00,Wunderground v.1.15,2013-01-14 00:11:00,
2013-01-13 18:12:00,15.2,10.4,30.26,WNW,295,1.0,2.0,81,0.00,,,0.00,Wunderground v.1.15,2013-01-14 00:12:00,
2013-01-13 18:13:00,15.2,10.4,30.26,WNW,302,1.0,2.0,81,0.00,,,0.00,Wunderground v.1.15,2013-01-14 00:13:00,
2013-01-13 18:15:00,15.1,10.3,30.26,WNW,293,1.0,2.0,81,0.00,,,0.00,Wunderground v.1.15,2013-01-14 00:15:00,
2013-01-13 18:17:00,15.1,10.3,30.26,WNW,284,1.0,2.0,81,0.00,,,0.00,Wunderground v.1.15,2013-01-14 00:17:00,
2013-01-13 18:18:00,15.1,10.3,30.26,West,279,1.0,2.0,81,0.00,,,0.00,Wunderground v.1.15,2013-01-14 00:18:00,
2013-01-13 18:20:00,15.1,10.3,30.26,West,281,1.0,2.0,81,0.00,,,0.00,Wunderground v.1.15,2013-01-14 00:20:00,
2013-01-13 18:22:00,15.1,10.3,30.26,WNW,290,1.0,2.0,81,0.00,,,0.00,Wunderground v.1.15,2013-01-14 00:22:00,
2013-01-13 18:25:00,15.0,10.2,30.26,WNW,287,1.0,2.0,81,0.00,,,0.00,Wunderground v.1.15,2013-01-14 00:25:00,
2013-01-13 18:26:00,15.0,10.2,30.26,WNW,283,1.0,2.0,81,0.00,,,0.00,Wunderground v.1.15,2013-01-14 00:26:00,
2013-01-13 18:27:00,15.0,10.2,30.26,WNW,293,1.0,2.0,81,0.00,,,0.00,Wunderground v.1.15,2013-01-14 00:27:00,
2013-01-13 18:31:00,14.9,10.1,30.26,WNW,295,0.0,2.0,81,0.00,,,0.00,Wunderground v.1.15,2013-01-14 00:31:00,
2013-01-13 18:32:00,14.9,10.1,30.25,WNW,283,0.0,2.0,81,0.00,,,0.00,Wunderground v.1.15,2013-01-14 00:32:00,
2013-01-13 18:33:00,14.9,10.1,30.26,WNW,300,0.0,2.0,81,0.00,,,0.00,Wunderground v.1.15,2013-01-14 00:33:00,
2013-01-13 18:35:00,14.9,10.1,30.26,West,278,1.0,2.0,81,0.00,,,0.00,Wunderground v.1.15,2013-01-14 00:35:00,
2013-01-13 18:38:00,14.9,10.1,30.26,WNW,290,1.0,2.0,81,0.00,,,0.00,Wunderground v.1.15,2013-01-14 00:38:00,
2013-01-13 18:40:00,14.9,10.1,30.26,West,277,1.0,2.0,81,0.00,,,0.00,Wunderground v.1.15,2013-01-14 00:40:00,
2013-01-13 18:41:00,14.9,10.1,30.26,West,278,1.0,2.0,81,0.00,,,0.00,Wunderground v.1.15,2013-01-14 00:41:00,
2013-01-13 18:46:00,14.9,10.1,30.26,West,266,1.0,2.0,81,0.00,,,0.00,Wunderground v.1.15,2013-01-14 00:46:00,
2013-01-13 18:47:00,14.9,10.4,30.26,WNW,290,1.0,2.0,82,0.00,,,0.00,Wunderground v.1.15,2013-01-14 00:47:00,
2013-01-13 18:51:00,14.9,10.4,30.26,West,277,1.0,3.0,82,0.00,,,0.00,Wunderground v.1.15,2013-01-14 00:51:00,
2013-01-13 18:52:00,14.9,10.4,30.26,West,280,1.0,3.0,82,0.00,,,0.00,Wunderground v.1.15,2013-01-14 00:52:00,
2013-01-13 18:55:00,14.8,10.3,30.26,WNW,287,2.0,3.0,82,0.00,,,0.00,Wunderground v.1.15,2013-01-14 00:55:00,
2013-01-13 18:56:00,14.9,10.4,30.26,West,279,2.0,3.0,82,0.00,,,0.00,Wunderground v.1.15,2013-01-14 00:56:00,
2013-01-13 18:57:00,14.8,10.3,30.26,West,259,2.0,3.0,82,0.00,,,0.00,Wunderground v.1.15,2013-01-14 00:57:00,
2013-01-13 19:00:00,14.8,10.3,30.26,West,264,1.0,5.0,82,0.00,,,0.00,Wunderground v.1.15,2013-01-14 01:00:00,
2013-01-13 19:01:00,14.8,10.3,30.26,West,277,1.0,5.0,82,0.00,,,0.00,Wunderground v.1.15,2013-01-14 01:01:00,
2013-01-13 19:03:00,14.8,10.3,30.26,West,270,1.0,5.0,82,0.00,,,0.00,Wunderground v.1.15,2013-01-14 01:03:00,
2013-01-13 19:06:00,14.8,10.6,30.27,West,277,1.0,5.0,83,0.00,,,0.00,Wunderground v.1.15,2013-01-14 01:06:00,
2013-01-13 19:10:00,14.8,10.6,30.27,West,262,1.0,1.0,83,0.00,,,0.00,Wunderground v.1.15,2013-01-14 01:10:00,
2013-01-13 19:11:00,14.8,10.6,30.27,WNW,282,1.0,1.0,83,0.00,,,0.00,Wunderground v.1.15,2013-01-14 01:11:00,
2013-01-13 19:12:00,14.8,10.6,30.27,WSW,258,1.0,2.0,83,0.00,,,0.00,Wunderground v.1.15,2013-01-14 01:12:00,
2013-01-13 19:15:00,14.7,10.5,30.27,WNW,291,1.0,2.0,83,0.00,,,0.00,Wunderground v.1.15,2013-01-14 01:15:00,
2013-01-13 19:16:00,14.8,10.6,30.27,West,277,1.0,2.0,83,0.00,,,0.00,Wunderground v.1.15,2013-01-14 01:16:00,
2013-01-13 19:17:00,14.8,10.6,30.27,West,278,1.0,2.0,83,0.00,,,0.00,Wunderground v.1.15,2013-01-14 01:17:00,
2013-01-13 19:19:00,14.8,10.6,30.27,WSW,257,1.0,2.0,83,0.00,,,0.00,Wunderground v.1.15,2013-01-14 01:19:00,
2013-01-13 19:21:00,14.8,10.6,30.27,WNW,284,1.0,3.0,83,0.00,,,0.00,Wunderground v.1.15,2013-01-14 01:21:00,
2013-01-13 19:23:00,14.8,10.6,30.27,West,281,1.0,3.0,83,0.00,,,0.00,Wunderground v.1.15,2013-01-14 01:23:00,
2013-01-13 19:28:00,14.8,10.6,30.28,WNW,286,1.0,3.0,83,0.00,,,0.00,Wunderground v.1.15,2013-01-14 01:28:00,
2013-01-13 19:29:00,14.8,10.6,30.27,West,277,1.0,3.0,83,0.00,,,0.00,Wunderground v.1.15,2013-01-14 01:29:00,
2013-01-13 19:30:00,14.8,10.6,30.27,West,275,1.0,1.0,83,0.00,,,0.00,Wunderground v.1.15,2013-01-14 01:30:00,
2013-01-13 19:33:00,14.8,10.6,30.27,WSW,257,1.0,2.0,83,0.00,,,0.00,Wunderground v.1.15,2013-01-14 01:33:00,
2013-01-13 19:35:00,14.7,10.5,30.27,West,281,1.0,2.0,83,0.00,,,0.00,Wunderground v.1.15,2013-01-14 01:35:00,
2013-01-13 19:37:00,14.7,10.5,30.27,WNW,299,1.0,2.0,83,0.00,,,0.00,Wunderground v.1.15,2013-01-14 01:37:00,
2013-01-13 19:39:00,14.7,10.5,30.28,WNW,290,1.0,2.0,83,0.00,,,0.00,Wunderground v.1.15,2013-01-14 01:39:00,
2013-01-13 19:41:00,14.7,10.5,30.28,West,281,1.0,1.0,83,0.00,,,0.00,Wunderground v.1.15,2013-01-14 01:41:00,
2013-01-13 19:42:00,14.7,10.5,30.28,West,280,1.0,2.0,83,0.00,,,0.00,Wunderground v.1.15,2013-01-14 01:42:00,
2013-01-13 19:43:00,14.7,10.5,30.28,WNW,288,1.0,2.0,83,0.00,,,0.00,Wunderground v.1.15,2013-01-14 01:43:00,
2013-01-13 19:47:00,14.7,10.5,30.28,NW,318,1.0,2.0,83,0.00,,,0.00,Wunderground v.1.15,2013-01-14 01:47:00,
2013-01-13 19:49:00,14.7,10.5,30.28,West,280,1.0,2.0,83,0.00,,,0.00,Wunderground v.1.15,2013-01-14 01:49:00,
2013-01-13 19:52:00,14.7,10.5,30.28,West,276,1.0,2.0,83,0.00,,,0.00,Wunderground v.1.15,2013-01-14 01:52:00,
2013-01-13 19:53:00,14.7,10.5,30.28,West,278,1.0,2.0,83,0.00,,,0.00,Wunderground v.1.15,2013-01-14 01:53:00,
2013-01-13 19:57:00,14.7,10.5,30.28,West,281,1.0,2.0,83,0.00,,,0.00,Wunderground v.1.15,2013-01-14 01:57:00,
2013-01-13 19:58:00,14.7,10.5,30.28,WNW,288,1.0,2.0,83,0.00,,,0.00,Wunderground v.1.15,2013-01-14 01:58:00,
2013-01-13 19:59:00,14.7,10.5,30.28,West,264,1.0,2.0,83,0.00,,,0.00,Wunderground v.1.15,2013-01-14 01:59:00,
2013-01-13 20:02:00,14.6,10.4,30.29,West,273,1.0,2.0,83,0.00,,,0.00,Wunderground v.1.15,2013-01-14 02:02:00,
2013-01-13 20:04:00,14.6,10.4,30.29,West,278,1.0,3.0,83,0.00,,,0.00,Wunderground v.1.15,2013-01-14 02:04:00,
2013-01-13 20:05:00,14.6,10.4,30.28,WNW,297,1.0,3.0,83,0.00,,,0.00,Wunderground v.1.15,2013-01-14 02:05:00,
2013-01-13 20:06:00,14.6,10.1,30.28,WNW,282,1.0,3.0,82,0.00,,,0.00,Wunderground v.1.15,2013-01-14 02:06:00,
2013-01-13 20:09:00,14.6,10.4,30.28,WNW,292,1.0,3.0,83,0.00,,,0.00,Wunderground v.1.15,2013-01-14 02:09:00,
2013-01-13 20:11:00,14.6,10.4,30.28,NW,305,1.0,1.0,83,0.00,,,0.00,Wunderground v.1.15,2013-01-14 02:11:00,
2013-01-13 20:14:00,14.5,10.3,30.28,NW,307,1.0,1.0,83,0.00,,,0.00,Wunderground v.1.15,2013-01-14 02:14:00,
2013-01-13 20:17:00,14.5,10.3,30.29,WNW,284,1.0,3.0,83,0.00,,,0.00,Wunderground v.1.15,2013-01-14 02:17:00,
2013-01-13 20:18:00,14.5,10.3,30.29,WNW,288,1.0,3.0,83,0.00,,,0.00,Wunderground v.1.15,2013-01-14 02:18:00,
2013-01-13 20:22:00,14.5,10.3,30.29,West,279,1.0,2.0,83,0.00,,,0.00,Wunderground v.1.15,2013-01-14 02:22:00,
2013-01-13 20:24:00,14.5,10.3,30.29,WNW,283,1.0,2.0,83,0.00,,,0.00,Wunderground v.1.15,2013-01-14 02:24:00,
2013-01-13 20:25:00,14.5,10.3,30.29,West,281,1.0,2.0,83,0.00,,,0.00,Wunderground v.1.15,2013-01-14 02:25:00,
2013-01-13 20:28:00,14.5,10.3,30.29,WNW,283,1.0,4.0,83,0.00,,,0.00,Wunderground v.1.15,2013-01-14 02:28:00,
2013-01-13 20:29:00,14.4,9.9,30.29,West,278,1.0,4.0,82,0.00,,,0.00,Wunderground v.1.15,2013-01-14 02:29:00,
2013-01-13 20:30:00,14.4,10.2,30.29,West,279,1.0,1.0,83,0.00,,,0.00,Wunderground v.1.15,2013-01-14 02:30:00,
2013-01-13 20:31:00,14.4,10.2,30.29,West,279,1.0,1.0,83,0.00,,,0.00,Wunderground v.1.15,2013-01-14 02:31:00,
2013-01-13 20:34:00,14.4,10.2,30.29,WNW,290,1.0,1.0,83,0.00,,,0.00,Wunderground v.1.15,2013-01-14 02:34:00,
2013-01-13 20:35:00,14.4,9.9,30.29,West,276,1.0,2.0,82,0.00,,,0.00,Wunderground v.1.15,2013-01-14 02:35:00,
2013-01-13 20:36:00,14.3,9.8,30.30,WNW,300,1.0,2.0,82,0.00,,,0.00,Wunderground v.1.15,2013-01-14 02:36:00,
2013-01-13 20:40:00,14.3,9.8,30.29,WNW,302,1.0,1.0,82,0.00,,,0.00,Wunderground v.1.15,2013-01-14 02:40:00,
2013-01-13 20:42:00,14.3,10.1,30.29,NW,309,1.0,2.0,83,0.00,,,0.00,Wunderground v.1.15,2013-01-14 02:42:00,
2013-01-13 20:43:00,14.3,9.8,30.29,WNW,284,1.0,2.0,82,0.00,,,0.00,Wunderground v.1.15,2013-01-14 02:43:00,
2013-01-13 20:45:00,14.3,10.1,30.29,WNW,301,1.0,2.0,83,0.00,,,0.00,Wunderground v.1.15,2013-01-14 02:45:00,
2013-01-13 20:46:00,14.2,10.0,30.29,WNW,303,0.0,2.0,83,0.00,,,0.00,Wunderground v.1.15,2013-01-14 02:46:00,
2013-01-13 20:49:00,14.2,9.7,30.29,WNW,298,0.0,3.0,82,0.00,,,0.00,Wunderground v.1.15,2013-01-14 02:49:00,
2013-01-13 20:51:00,14.2,10.0,30.30,NNW,329,0.0,0.0,83,0.00,,,0.00,Wunderground v.1.15,2013-01-14 02:51:00,
2013-01-13 20:52:00,14.2,10.0,30.30,WNW,291,0.0,2.0,83,0.00,,,0.00,Wunderground v.1.15,2013-01-14 02:52:00,
2013-01-13 20:57:00,14.1,9.9,30.30,WNW,287,1.0,6.0,83,0.00,,,0.00,Wunderground v.1.15,2013-01-14 02:57:00,
2013-01-13 20:58:00,14.1,9.6,30.30,NW,309,1.0,6.0,82,0.00,,,0.00,Wunderground v.1.15,2013-01-14 02:58:00,
2013-01-13 20:59:00,14.1,9.6,30.30,NW,322,1.0,6.0,82,0.00,,,0.00,Wunderground v.1.15,2013-01-14 02:59:00,
2013-01-13 21:01:00,14.1,9.6,30.30,NW,304,1.0,1.0,82,0.00,,,0.00,Wunderground v.1.15,2013-01-14 03:01:00,
2013-01-13 21:04:00,14.2,9.7,30.30,WNW,294,1.0,1.0,82,0.00,,,0.00,Wunderground v.1.15,2013-01-14 03:04:00,
2013-01-13 21:05:00,14.1,9.6,30.30,West,277,1.0,1.0,82,0.00,,,0.00,Wunderground v.1.15,2013-01-14 03:05:00,
2013-01-13 21:06:00,14.1,9.6,30.30,West,266,1.0,3.0,82,0.00,,,0.00,Wunderground v.1.15,2013-01-14 03:06:00,
2013-01-13 21:09:00,14.1,9.6,30.30,NW,316,1.0,3.0,82,0.00,,,0.00,Wunderground v.1.15,2013-01-14 03:09:00,
2013-01-13 21:11:00,14.1,9.6,30.30,WNW,302,1.0,3.0,82,0.00,,,0.00,Wunderground v.1.15,2013-01-14 03:11:00,
2013-01-13 21:13:00,14.1,9.6,30.30,WNW,291,1.0,3.0,82,0.00,,,0.00,Wunderground v.1.15,2013-01-14 03:13:00,
2013-01-13 21:14:00,14.1,9.6,30.30,WNW,303,1.0,3.0,82,0.00,,,0.00,Wunderground v.1.15,2013-01-14 03:14:00,
2013-01-13 21:15:00,14.1,9.6,30.30,WNW,302,1.0,3.0,82,0.00,,,0.00,Wunderground v.1.15,2013-01-14 03:15:00,
2013-01-13 21:17:00,14.1,9.6,30.30,WNW,300,1.0,4.0,82,0.00,,,0.00,Wunderground v.1.15,2013-01-14 03:17:00,
2013-01-13 21:20:00,14.1,9.6,30.30,WNW,294,2.0,2.0,82,0.00,,,0.00,Wunderground v.1.15,2013-01-14 03:20:00,
2013-01-13 21:21:00,14.1,9.6,30.30,NW,305,2.0,2.0,82,0.00,,,0.00,Wunderground v.1.15,2013-01-14 03:21:00,
2013-01-13 21:22:00,14.1,9.6,30.30,NW,314,2.0,2.0,82,0.00,,,0.00,Wunderground v.1.15,2013-01-14 03:22:00,
2013-01-13 21:26:00,14.0,9.5,30.30,WNW,284,2.0,2.0,82,0.00,,,0.00,Wunderground v.1.15,2013-01-14 03:26:00,
2013-01-13 21:27:00,14.0,9.5,30.30,WNW,297,2.0,2.0,82,0.00,,,0.00,Wunderground v.1.15,2013-01-14 03:27:00,
2013-01-13 21:28:00,14.0,9.5,30.30,WNW,297,2.0,2.0,82,0.00,,,0.00,Wunderground v.1.15,2013-01-14 03:28:00,
2013-01-13 21:32:00,14.0,9.5,30.30,NW,322,1.0,1.0,82,0.00,,,0.00,Wunderground v.1.15,2013-01-14 03:32:00,
2013-01-13 21:33:00,14.0,9.5,30.30,WNW,298,1.0,1.0,82,0.00,,,0.00,Wunderground v.1.15,2013-01-14 03:33:00,
2013-01-13 21:37:00,14.0,9.5,30.30,NW,310,1.0,2.0,82,0.00,,,0.00,Wunderground v.1.15,2013-01-14 03:37:00,
2013-01-13 21:39:00,13.9,9.4,30.30,NW,304,1.0,2.0,82,0.00,,,0.00,Wunderground v.1.15,2013-01-14 03:39:00,
2013-01-13 21:42:00,13.9,9.4,30.30,WNW,303,1.0,1.0,82,0.00,,,0.00,Wunderground v.1.15,2013-01-14 03:42:00,
2013-01-13 21:44:00,13.9,9.4,30.30,NW,310,1.0,1.0,82,0.00,,,0.00,Wunderground v.1.15,2013-01-14 03:44:00,
2013-01-13 21:46:00,13.8,9.3,30.30,WNW,288,0.0,1.0,82,0.00,,,0.00,Wunderground v.1.15,2013-01-14 03:46:00,
2013-01-13 21:49:00,13.7,9.2,30.30,WNW,300,0.0,1.0,82,0.00,,,0.00,Wunderground v.1.15,2013-01-14 03:49:00,
2013-01-13 21:50:00,13.7,9.2,30.30,NW,307,0.0,0.0,82,0.00,,,0.00,Wunderground v.1.15,2013-01-14 03:50:00,
2013-01-13 21:51:00,13.7,9.2,30.30,WNW,295,0.0,2.0,82,0.00,,,0.00,Wunderground v.1.15,2013-01-14 03:51:00,
2013-01-13 21:57:00,13.7,9.5,30.30,NW,304,0.0,2.0,83,0.00,,,0.00,Wunderground v.1.15,2013-01-14 03:57:00,
2013-01-13 21:58:00,13.6,9.1,30.30,NW,305,0.0,2.0,82,0.00,,,0.00,Wunderground v.1.15,2013-01-14 03:58:00,
2013-01-13 22:00:00,13.6,9.1,30.30,WNW,297,0.0,0.0,82,0.00,,,0.00,Wunderground v.1.15,2013-01-14 04:00:00,
2013-01-13 22:03:00,13.5,9.0,30.30,NW,307,0.0,0.0,82,0.00,,,0.00,Wunderground v.1.15,2013-01-14 04:03:00,
2013-01-13 22:07:00,13.5,9.3,30.30,WNW,302,0.0,1.0,83,0.00,,,0.00,Wunderground v.1.15,2013-01-14 04:07:00,
2013-01-13 22:08:00,13.5,9.0,30.30,NW,311,0.0,1.0,82,0.00,,,0.00,Wunderground v.1.15,2013-01-14 04:08:00,
2013-01-13 22:11:00,13.4,9.2,30.30,NW,308,0.0,0.0,83,0.00,,,0.00,Wunderground v.1.15,2013-01-14 04:11:00,
2013-01-13 22:12:00,13.4,9.2,30.30,NW,308,0.0,2.0,83,0.00,,,0.00,Wunderground v.1.15,2013-01-14 04:12:00,
2013-01-13 22:15:00,13.4,9.2,30.30,NW,304,0.0,2.0,83,0.00,,,0.00,Wunderground v.1.15,2013-01-14 04:15:00,
2013-01-13 22:16:00,13.4,9.2,30.30,NNW,327,0.0,2.0,83,0.00,,,0.00,Wunderground v.1.15,2013-01-14 04:16:00,
2013-01-13 22:18:00,13.4,9.2,30.30,NW,304,0.0,2.0,83,0.00,,,0.00,Wunderground v.1.15,2013-01-14 04:18:00,
2013-01-13 22:20:00,13.4,9.2,30.30,West,280,0.0,0.0,83,0.00,,,0.00,Wunderground v.1.15,2013-01-14 04:20:00,
2013-01-13 22:21:00,13.3,9.1,30.30,NNW,329,0.0,0.0,83,0.00,,,0.00,Wunderground v.1.15,2013-01-14 04:21:00,
2013-01-13 22:25:00,13.3,9.1,30.30,NW,304,0.0,1.0,83,0.00,,,0.00,Wunderground v.1.15,2013-01-14 04:25:00,
2013-01-13 22:26:00,13.3,9.1,30.30,NW,310,0.0,1.0,83,0.00,,,0.00,Wunderground v.1.15,2013-01-14 04:26:00,
2013-01-13 22:27:00,13.3,9.4,30.30,NW,311,0.0,1.0,84,0.00,,,0.00,Wunderground v.1.15,2013-01-14 04:27:00,
2013-01-13 22:28:00,13.3,9.4,30.30,NW,310,0.0,1.0,84,0.00,,,0.00,Wunderground v.1.15,2013-01-14 04:28:00,
2013-01-13 22:31:00,13.2,9.3,30.30,NW,309,0.0,0.0,84,0.00,,,0.00,Wunderground v.1.15,2013-01-14 04:31:00,
2013-01-13 22:32:00,13.2,9.3,30.30,NW,319,0.0,0.0,84,0.00,,,0.00,Wunderground v.1.15,2013-01-14 04:32:00,
2013-01-13 22:36:00,13.2,9.3,30.31,NW,318,0.0,0.0,84,0.00,,,0.00,Wunderground v.1.15,2013-01-14 04:36:00,
2013-01-13 22:37:00,13.2,9.3,30.31,NW,316,0.0,0.0,84,0.00,,,0.00,Wunderground v.1.15,2013-01-14 04:37:00,
2013-01-13 22:41:00,13.2,9.3,30.31,WNW,290,0.0,0.0,84,0.00,,,0.00,Wunderground v.1.15,2013-01-14 04:41:00,
2013-01-13 22:43:00,13.1,9.2,30.31,West,277,0.0,0.0,84,0.00,,,0.00,Wunderground v.1.15,2013-01-14 04:43:00,
2013-01-13 22:45:00,13.1,9.2,30.31,West,280,0.0,0.0,84,0.00,,,0.00,Wunderground v.1.15,2013-01-14 04:45:00,
2013-01-13 22:46:00,13.2,9.3,30.31,NW,305,0.0,0.0,84,0.00,,,0.00,Wunderground v.1.15,2013-01-14 04:46:00,
2013-01-13 22:48:00,13.1,8.9,30.31,West,278,0.0,0.0,83,0.00,,,0.00,Wunderground v.1.15,2013-01-14 04:48:00,
2013-01-13 22:51:00,13.1,9.2,30.31,NW,304,0.0,1.0,84,0.00,,,0.00,Wunderground v.1.15,2013-01-14 04:51:00,
2013-01-13 22:52:00,13.1,9.2,30.31,West,280,0.0,1.0,84,0.00,,,0.00,Wunderground v.1.15,2013-01-14 04:52:00,
2013-01-13 22:56:00,13.1,8.9,30.32,WNW,302,0.0,1.0,83,0.00,,,0.00,Wunderground v.1.15,2013-01-14 04:56:00,
2013-01-13 23:00:00,13.1,8.9,30.32,NW,304,0.0,0.0,83,0.00,,,0.00,Wunderground v.1.15,2013-01-14 05:00:00,
2013-01-13 23:03:00,13.1,8.9,30.31,NW,304,0.0,0.0,83,0.00,,,0.00,Wunderground v.1.15,2013-01-14 05:03:00,
2013-01-13 23:04:00,13.1,8.9,30.31,NW,304,0.0,0.0,83,0.00,,,0.00,Wunderground v.1.15,2013-01-14 05:04:00,
2013-01-13 23:07:00,13.0,8.8,30.31,WNW,294,0.0,2.0,83,0.00,,,0.00,Wunderground v.1.15,2013-01-14 05:07:00,
2013-01-13 23:10:00,13.0,9.1,30.32,West,280,0.0,0.0,84,0.00,,,0.00,Wunderground v.1.15,2013-01-14 05:10:00,
2013-01-13 23:11:00,13.0,9.1,30.32,WSW,256,0.0,0.0,84,0.00,,,0.00,Wunderground v.1.15,2013-01-14 05:11:00,
2013-01-13 23:12:00,13.0,9.1,30.32,WNW,288,0.0,0.0,84,0.00,,,0.00,Wunderground v.1.15,2013-01-14 05:12:00,
2013-01-13 23:15:00,13.0,9.1,30.32,WNW,302,0.0,0.0,84,0.00,,,0.00,Wunderground v.1.15,2013-01-14 05:15:00,
2013-01-13 23:17:00,13.0,9.1,30.32,West,281,0.0,0.0,84,0.00,,,0.00,Wunderground v.1.15,2013-01-14 05:17:00,
2013-01-13 23:20:00,12.9,9.0,30.32,West,274,0.0,0.0,84,0.00,,,0.00,Wunderground v.1.15,2013-01-14 05:20:00,
2013-01-13 23:21:00,12.9,9.0,30.32,WNW,301,0.0,0.0,84,0.00,,,0.00,Wunderground v.1.15,2013-01-14 05:21:00,
2013-01-13 23:22:00,12.9,9.0,30.32,NW,312,0.0,0.0,84,0.00,,,0.00,Wunderground v.1.15,2013-01-14 05:22:00,
2013-01-13 23:27:00,12.9,9.0,30.31,NW,307,0.0,2.0,84,0.00,,,0.00,Wunderground v.1.15,2013-01-14 05:27:00,
2013-01-13 23:29:00,12.9,9.0,30.31,NW,310,0.0,2.0,84,0.00,,,0.00,Wunderground v.1.15,2013-01-14 05:29:00,
2013-01-13 23:30:00,12.9,9.0,30.31,NW,319,0.0,0.0,84,0.00,,,0.00,Wunderground v.1.15,2013-01-14 05:30:00,
2013-01-13 23:32:00,12.9,9.0,30.32,NW,308,0.0,0.0,84,0.00,,,0.00,Wunderground v.1.15,2013-01-14 05:32:00,
2013-01-13 23:34:00,12.8,8.9,30.31,NW,312,0.0,0.0,84,0.00,,,0.00,Wunderground v.1.15,2013-01-14 05:34:00,
2013-01-13 23:35:00,12.8,8.9,30.31,NW,307,0.0,0.0,84,0.00,,,0.00,Wunderground v.1.15,2013-01-14 05:35:00,
2013-01-13 23:38:00,12.8,8.9,30.31,NW,312,0.0,0.0,84,0.00,,,0.00,Wunderground v.1.15,2013-01-14 05:38:00,
2013-01-13 23:41:00,12.8,8.9,30.31,NW,305,0.0,0.0,84,0.00,,,0.00,Wunderground v.1.15,2013-01-14 05:41:00,
2013-01-13 23:42:00,12.8,8.9,30.31,NW,304,0.0,0.0,84,0.00,,,0.00,Wunderground v.1.15,2013-01-14 05:42:00,
2013-01-13 23:43:00,12.7,9.0,30.31,NW,307,0.0,0.0,85,0.00,,,0.00,Wunderground v.1.15,2013-01-14 05:43:00,
2013-01-13 23:47:00,12.7,9.0,30.32,West,278,0.0,0.0,85,0.00,,,0.00,Wunderground v.1.15,2013-01-14 05:47:00,
2013-01-13 23:48:00,12.6,8.9,30.32,West,274,0.0,0.0,85,0.00,,,0.00,Wunderground v.1.15,2013-01-14 05:48:00,
2013-01-13 23:51:00,12.6,8.9,30.32,WSW,255,0.0,0.0,85,0.00,,,0.00,Wunderground v.1.15,2013-01-14 05:51:00,
2013-01-13 23:52:00,12.6,8.9,30.32,West,266,0.0,0.0,85,0.00,,,0.00,Wunderground v.1.15,2013-01-14 05:52:00,
2013-01-13 23:54:00,12.6,8.9,30.32,West,266,0.0,0.0,85,0.00,,,0.00,Wunderground v.1.15,2013-01-14 05:54:00,
2013-01-13 23:56:00,12.6,8.7,30.32,WSW,243,0.0,0.0,84,0.00,,,0.00,Wunderground v.1.15,2013-01-14 05:56:00,
2013-01-13 23:59:00,12.6,8.7,30.32,West,274,0.0,0.0,84,0.00,,,0.00,Wunderground v.1.15,2013-01-14 05:59:00,